Time,TemperatureF,DewpointF,PressureIn,WindDirection,WindDirectionDegrees,WindSpeedMPH,WindSpeedGustMPH,Humidity,HourlyPrecipIn,Conditions,Clouds,dailyrainin,SoftwareType,DateUTC
2013-02-12 01:20:00,37.6,26.9,30.17,WSW,242,1.0,1.0,65,0.00,,,0.00,Wunderground v.1.15,2013-02-12 06:20:00,
2013-02-12 01:22:00,37.7,27.0,30.17,WSW,242,1.0,1.0,65,0.00,,,0.00,Wunderground v.1.15,2013-02-12 06:22:00,
2013-02-12 01:26:00,37.7,27.0,30.17,WSW,242,1.0,2.0,65,0.00,,,0.00,Wunderground v.1.15,2013-02-12 06:26:00,
2013-02-12 01:29:00,37.8,27.1,30.17,WSW,242,1.0,2.0,65,0.00,,,0.00,Wunderground v.1.15,2013-02-12 06:29:00,
2013-02-12 01:31:00,37.7,27.0,30.17,WSW,242,1.0,2.0,65,0.00,,,0.00,Wunderground v.1.15,2013-02-12 06:31:00,
2013-02-12 01:33:00,37.7,27.0,30.17,WSW,242,1.0,2.0,65,0.00,,,0.00,Wunderground v.1.15,2013-02-12 06:33:00,
2013-02-12 01:35:00,37.7,27.0,30.17,WSW,242,1.0,2.0,65,0.00,,,0.00,Wunderground v.1.15,2013-02-12 06:35:00,
2013-02-12 01:37:00,37.7,27.0,30.17,WSW,242,1.0,2.0,65,0.00,,,0.00,Wunderground v.1.15,2013-02-12 06:37:00,
2013-02-12 01:38:00,37.7,27.0,30.17,WSW,242,1.0,1.0,65,0.00,,,0.00,Wunderground v.1.15,2013-02-12 06:38:00,
2013-02-12 01:40:00,37.7,27.0,30.17,WSW,242,1.0,2.0,65,0.00,,,0.00,Wunderground v.1.15,2013-02-12 06:40:00,
2013-02-12 01:45:00,37.7,27.0,30.18,WSW,242,1.0,2.0,65,0.00,,,0.00,Wunderground v.1.15,2013-02-12 06:45:00,
2013-02-12 01:47:00,37.7,27.0,30.18,WSW,242,1.0,2.0,65,0.00,,,0.00,Wunderground v.1.15,2013-02-12 06:47:00,
2013-02-12 01:49:00,37.7,27.0,30.17,SW,217,1.0,3.0,65,0.00,,,0.00,Wunderground v.1.15,2013-02-12 06:49:00,
2013-02-12 01:53:00,37.7,27.0,30.18,SW,217,1.0,3.0,65,0.00,,,0.00,Wunderground v.1.15,2013-02-12 06:53:00,
2013-02-12 01:58:00,37.6,26.9,30.18,SW,217,2.0,2.0,65,0.00,,,0.00,Wunderground v.1.15,2013-02-12 06:58:00,
2013-02-12 02:00:00,37.5,26.8,30.18,SW,217,2.0,2.0,65,0.00,,,0.00,Wunderground v.1.15,2013-02-12 07:00:00,
2013-02-12 02:02:00,37.5,26.8,30.18,SW,217,1.0,2.0,65,0.00,,,0.00,Wunderground v.1.15,2013-02-12 07:02:00,
2013-02-12 02:05:00,37.4,27.1,30.18,SW,217,1.0,2.0,66,0.00,,,0.00,Wunderground v.1.15,2013-02-12 07:05:00,
2013-02-12 02:11:00,37.4,27.1,30.18,SW,232,1.0,2.0,66,0.00,,,0.00,Wunderground v.1.15,2013-02-12 07:11:00,
2013-02-12 02:13:00,37.4,27.1,30.18,SW,232,1.0,2.0,66,0.00,,,0.00,Wunderground v.1.15,2013-02-12 07:13:00,
2013-02-12 02:14:00,37.4,27.1,30.18,SW,232,1.0,2.0,66,0.00,,,0.00,Wunderground v.1.15,2013-02-12 07:14:00,
2013-02-12 02:16:00,37.3,27.0,30.18,SW,232,2.0,2.0,66,0.00,,,0.00,Wunderground v.1.15,2013-02-12 07:16:00,
2013-02-12 02:19:00,37.3,27.0,30.19,SW,235,2.0,2.0,66,0.00,,,0.00,Wunderground v.1.15,2013-02-12 07:19:00,
2013-02-12 02:22:00,37.2,26.9,30.18,SW,219,2.0,3.0,66,0.00,,,0.00,Wunderground v.1.15,2013-02-12 07:22:00,
2013-02-12 02:26:00,37.1,26.8,30.18,SW,219,2.0,3.0,66,0.00,,,0.00,Wunderground v.1.15,2013-02-12 07:26:00,
2013-02-12 02:28:00,37.1,26.8,30.18,SW,219,2.0,2.0,66,0.00,,,0.00,Wunderground v.1.15,2013-02-12 07:28:00,
2013-02-12 02:29:00,37.1,26.8,30.18,SW,219,2.0,2.0,66,0.00,,,0.00,Wunderground v.1.15,2013-02-12 07:29:00,
2013-02-12 02:33:00,37.1,27.2,30.18,SW,224,1.0,2.0,67,0.00,,,0.00,Wunderground v.1.15,2013-02-12 07:33:00,
2013-02-12 02:34:00,37.0,27.1,30.18,SW,218,1.0,2.0,67,0.00,,,0.00,Wunderground v.1.15,2013-02-12 07:34:00,
2013-02-12 02:39:00,37.0,27.1,30.18,SW,218,1.0,2.0,67,0.00,,,0.00,Wunderground v.1.15,2013-02-12 07:39:00,
2013-02-12 02:42:00,37.0,27.1,30.18,SW,218,1.0,2.0,67,0.00,,,0.00,Wunderground v.1.15,2013-02-12 07:42:00,
2013-02-12 02:45:00,37.1,27.2,30.18,SW,218,1.0,2.0,67,0.00,,,0.00,Wunderground v.1.15,2013-02-12 07:45:00,
2013-02-12 02:48:00,37.1,27.2,30.18,SW,218,1.0,1.0,67,0.00,,,0.00,Wunderground v.1.15,2013-02-12 07:48:00,
2013-02-12 02:54:00,37.1,27.2,30.18,SW,232,1.0,2.0,67,0.00,,,0.00,Wunderground v.1.15,2013-02-12 07:54:00,
2013-02-12 02:55:00,37.1,27.2,30.18,SW,232,1.0,2.0,67,0.00,,,0.00,Wunderground v.1.15,2013-02-12 07:55:00,
2013-02-12 02:58:00,37.0,27.1,30.18,SW,232,1.0,1.0,67,0.00,,,0.00,Wunderground v.1.15,2013-02-12 07:58:00,
2013-02-12 03:00:00,36.9,27.0,30.18,SW,236,1.0,3.0,67,0.00,,,0.00,Wunderground v.1.15,2013-02-12 08:00:00,
2013-02-12 03:03:00,36.7,26.8,30.18,WSW,239,1.0,3.0,67,0.00,,,0.00,Wunderground v.1.15,2013-02-12 08:03:00,
2013-02-12 03:06:00,36.6,27.0,30.18,WSW,239,1.0,3.0,68,0.00,,,0.00,Wunderground v.1.15,2013-02-12 08:06:00,
2013-02-12 03:08:00,36.5,26.9,30.18,WSW,239,1.0,2.0,68,0.00,,,0.00,Wunderground v.1.15,2013-02-12 08:08:00,
2013-02-12 03:11:00,36.6,27.0,30.18,WSW,239,1.0,2.0,68,0.00,,,0.00,Wunderground v.1.15,2013-02-12 08:11:00,
2013-02-12 03:13:00,36.6,27.0,30.17,WSW,250,1.0,2.0,68,0.00,,,0.00,Wunderground v.1.15,2013-02-12 08:13:00,
2013-02-12 03:19:00,36.5,26.9,30.17,WSW,250,1.0,2.0,68,0.00,,,0.00,Wunderground v.1.15,2013-02-12 08:19:00,
2013-02-12 03:20:00,36.4,26.8,30.17,WSW,250,1.0,2.0,68,0.00,,,0.00,Wunderground v.1.15,2013-02-12 08:20:00,
2013-02-12 03:22:00,36.4,26.8,30.17,WSW,250,1.0,2.0,68,0.00,,,0.00,Wunderground v.1.15,2013-02-12 08:22:00,
2013-02-12 03:24:00,36.3,26.7,30.17,WSW,250,1.0,2.0,68,0.00,,,0.00,Wunderground v.1.15,2013-02-12 08:24:00,
2013-02-12 03:27:00,36.2,27.0,30.17,WSW,250,1.0,1.0,69,0.00,,,0.00,Wunderground v.1.15,2013-02-12 08:27:00,
2013-02-12 03:29:00,36.2,26.6,30.17,WSW,250,1.0,2.0,68,0.00,,,0.00,Wunderground v.1.15,2013-02-12 08:29:00,
2013-02-12 03:32:00,36.2,26.6,30.17,WSW,250,1.0,2.0,68,0.00,,,0.00,Wunderground v.1.15,2013-02-12 08:32:00,
2013-02-12 03:34:00,36.3,26.7,30.18,WSW,250,1.0,2.0,68,0.00,,,0.00,Wunderground v.1.15,2013-02-12 08:34:00,
2013-02-12 03:36:00,36.2,26.6,30.18,WSW,250,1.0,2.0,68,0.00,,,0.00,Wunderground v.1.15,2013-02-12 08:36:00,
2013-02-12 03:38:00,36.3,26.7,30.18,WSW,250,2.0,3.0,68,0.00,,,0.00,Wunderground v.1.15,2013-02-12 08:38:00,
2013-02-12 03:42:00,36.2,26.6,30.18,WSW,250,2.0,3.0,68,0.00,,,0.00,Wunderground v.1.15,2013-02-12 08:42:00,
2013-02-12 03:43:00,36.1,26.9,30.18,WSW,250,2.0,3.0,69,0.00,,,0.00,Wunderground v.1.15,2013-02-12 08:43:00,
2013-02-12 03:44:00,36.1,26.9,30.17,WSW,250,2.0,3.0,69,0.00,,,0.00,Wunderground v.1.15,2013-02-12 08:44:00,
2013-02-12 03:46:00,36.1,26.9,30.17,West,275,2.0,3.0,69,0.00,,,0.00,Wunderground v.1.15,2013-02-12 08:46:00,
2013-02-12 03:49:00,36.0,26.8,30.17,West,275,2.0,2.0,69,0.00,,,0.00,Wunderground v.1.15,2013-02-12 08:49:00,
2013-02-12 03:52:00,35.9,26.7,30.17,West,275,2.0,2.0,69,0.00,,,0.00,Wunderground v.1.15,2013-02-12 08:52:00,
2013-02-12 03:54:00,35.9,26.7,30.17,West,275,2.0,2.0,69,0.00,,,0.00,Wunderground v.1.15,2013-02-12 08:54:00,
2013-02-12 03:56:00,35.9,26.7,30.17,SW,234,2.0,2.0,69,0.00,,,0.00,Wunderground v.1.15,2013-02-12 08:56:00,
2013-02-12 03:58:00,35.8,26.6,30.17,WSW,240,2.0,2.0,69,0.00,,,0.00,Wunderground v.1.15,2013-02-12 08:58:00,
2013-02-12 04:00:00,35.9,26.7,30.18,WSW,240,2.0,2.0,69,0.00,,,0.00,Wunderground v.1.15,2013-02-12 09:00:00,
2013-02-12 04:04:00,36.0,26.8,30.18,WSW,240,2.0,3.0,69,0.00,,,0.00,Wunderground v.1.15,2013-02-12 09:04:00,
2013-02-12 04:05:00,36.0,26.8,30.17,WSW,240,2.0,3.0,69,0.00,,,0.00,Wunderground v.1.15,2013-02-12 09:05:00,
2013-02-12 04:07:00,36.1,26.9,30.17,WSW,241,2.0,2.0,69,0.00,,,0.00,Wunderground v.1.15,2013-02-12 09:07:00,
2013-02-12 04:09:00,36.1,26.9,30.17,WSW,241,2.0,2.0,69,0.00,,,0.00,Wunderground v.1.15,2013-02-12 09:09:00,
2013-02-12 04:12:00,36.1,26.9,30.17,WSW,241,2.0,2.0,69,0.00,,,0.00,Wunderground v.1.15,2013-02-12 09:12:00,
2013-02-12 04:14:00,36.0,26.8,30.17,WSW,241,2.0,2.0,69,0.00,,,0.00,Wunderground v.1.15,2013-02-12 09:14:00,
2013-02-12 04:16:00,36.0,26.8,30.18,WSW,241,2.0,2.0,69,0.00,,,0.00,Wunderground v.1.15,2013-02-12 09:16:00,
2013-02-12 04:17:00,36.0,26.8,30.18,WSW,241,2.0,2.0,69,0.00,,,0.00,Wunderground v.1.15,2013-02-12 09:17:00,
2013-02-12 04:21:00,36.0,26.8,30.18,WSW,241,2.0,2.0,69,0.00,,,0.00,Wunderground v.1.15,2013-02-12 09:21:00,
2013-02-12 04:24:00,36.0,26.8,30.18,WSW,241,2.0,2.0,69,0.00,,,0.00,Wunderground v.1.15,2013-02-12 09:24:00,
2013-02-12 04:28:00,36.0,26.8,30.18,SW,236,2.0,2.0,69,0.00,,,0.00,Wunderground v.1.15,2013-02-12 09:28:00,
2013-02-12 04:31:00,35.8,27.0,30.18,WSW,244,1.0,3.0,70,0.00,,,0.00,Wunderground v.1.15,2013-02-12 09:31:00,
2013-02-12 04:34:00,35.8,27.0,30.18,WSW,254,1.0,3.0,70,0.00,,,0.00,Wunderground v.1.15,2013-02-12 09:34:00,
2013-02-12 04:35:00,35.8,27.0,30.18,WSW,254,1.0,3.0,70,0.00,,,0.00,Wunderground v.1.15,2013-02-12 09:35:00,
2013-02-12 04:36:00,35.8,27.0,30.18,WSW,254,1.0,3.0,70,0.00,,,0.00,Wunderground v.1.15,2013-02-12 09:36:00,
2013-02-12 04:41:00,35.9,27.1,30.18,WSW,241,1.0,2.0,70,0.00,,,0.00,Wunderground v.1.15,2013-02-12 09:41:00,
2013-02-12 04:43:00,35.9,27.1,30.18,WSW,241,1.0,2.0,70,0.00,,,0.00,Wunderground v.1.15,2013-02-12 09:43:00,
2013-02-12 04:46:00,35.9,27.1,30.18,WSW,242,1.0,2.0,70,0.00,,,0.00,Wunderground v.1.15,2013-02-12 09:46:00,
2013-02-12 04:50:00,36.0,27.2,30.18,WSW,242,1.0,2.0,70,0.00,,,0.00,Wunderground v.1.15,2013-02-12 09:50:00,
2013-02-12 04:53:00,36.0,26.8,30.18,WSW,242,1.0,2.0,69,0.00,,,0.00,Wunderground v.1.15,2013-02-12 09:53:00,
2013-02-12 04:55:00,35.9,27.1,30.18,WSW,242,1.0,2.0,70,0.00,,,0.00,Wunderground v.1.15,2013-02-12 09:55:00,
2013-02-12 05:00:00,35.7,26.9,30.18,WSW,242,0.0,1.0,70,0.00,,,0.00,Wunderground v.1.15,2013-02-12 10:00:00,
2013-02-12 05:03:00,35.6,26.8,30.18,WSW,242,0.0,1.0,70,0.00,,,0.00,Wunderground v.1.15,2013-02-12 10:03:00,
2013-02-12 05:04:00,35.6,26.8,30.18,WSW,242,0.0,1.0,70,0.00,,,0.00,Wunderground v.1.15,2013-02-12 10:04:00,
2013-02-12 05:05:00,35.6,26.8,30.18,WSW,242,0.0,1.0,70,0.00,,,0.00,Wunderground v.1.15,2013-02-12 10:05:00,
2013-02-12 05:10:00,35.4,26.6,30.18,WSW,242,0.0,0.0,70,0.00,,,0.00,Wunderground v.1.15,2013-02-12 10:10:00,
2013-02-12 05:11:00,35.4,26.6,30.18,WSW,242,0.0,1.0,70,0.00,,,0.00,Wunderground v.1.15,2013-02-12 10:11:00,
2013-02-12 05:12:00,35.4,26.9,30.18,WSW,242,0.0,1.0,71,0.00,,,0.00,Wunderground v.1.15,2013-02-12 10:12:00,
2013-02-12 05:15:00,35.4,26.9,30.18,WSW,242,0.0,2.0,71,0.00,,,0.00,Wunderground v.1.15,2013-02-12 10:15:00,
2013-02-12 05:18:00,35.5,27.0,30.18,WSW,242,0.0,1.0,71,0.00,,,0.00,Wunderground v.1.15,2013-02-12 10:18:00,
2013-02-12 05:19:00,35.5,27.0,30.18,WSW,242,0.0,1.0,71,0.00,,,0.00,Wunderground v.1.15,2013-02-12 10:19:00,
2013-02-12 05:24:00,35.5,26.7,30.18,WSW,242,0.0,1.0,70,0.00,,,0.00,Wunderground v.1.15,2013-02-12 10:24:00,
2013-02-12 05:25:00,35.4,26.6,30.18,WSW,242,0.0,1.0,70,0.00,,,0.00,Wunderground v.1.15,2013-02-12 10:25:00,
2013-02-12 05:27:00,35.4,26.9,30.19,WSW,242,0.0,1.0,71,0.00,,,0.00,Wunderground v.1.15,2013-02-12 10:27:00,
2013-02-12 05:31:00,35.0,26.5,30.19,WSW,242,1.0,2.0,71,0.00,,,0.00,Wunderground v.1.15,2013-02-12 10:31:00,
2013-02-12 05:32:00,34.8,26.4,30.19,WSW,242,1.0,2.0,71,0.00,,,0.00,Wunderground v.1.15,2013-02-12 10:32:00,
2013-02-12 05:34:00,34.4,26.0,30.19,WSW,242,1.0,2.0,71,0.00,,,0.00,Wunderground v.1.15,2013-02-12 10:34:00,
2013-02-12 05:38:00,33.3,25.9,30.20,SSW,198,2.0,3.0,74,0.00,,,0.00,Wunderground v.1.15,2013-02-12 10:38:00,
2013-02-12 05:40:00,33.0,25.6,30.20,SSW,211,2.0,3.0,74,0.00,,,0.00,Wunderground v.1.15,2013-02-12 10:40:00,
2013-02-12 05:42:00,32.8,25.7,30.20,SSW,208,2.0,3.0,75,0.00,,,0.00,Wunderground v.1.15,2013-02-12 10:42:00,
2013-02-12 05:45:00,32.8,26.1,30.20,SSW,207,2.0,3.0,76,0.00,,,0.00,Wunderground v.1.15,2013-02-12 10:45:00,
2013-02-12 05:46:00,32.9,26.2,30.20,SSW,207,2.0,3.0,76,0.00,,,0.00,Wunderground v.1.15,2013-02-12 10:46:00,
2013-02-12 05:47:00,32.9,26.2,30.20,SSW,207,2.0,2.0,76,0.00,,,0.00,Wunderground v.1.15,2013-02-12 10:47:00,
2013-02-12 05:49:00,33.1,26.4,30.20,SSW,207,2.0,2.0,76,0.00,,,0.00,Wunderground v.1.15,2013-02-12 10:49:00,
2013-02-12 05:53:00,33.3,26.5,30.20,SSW,204,2.0,2.0,76,0.00,,,0.00,Wunderground v.1.15,2013-02-12 10:53:00,
2013-02-12 05:54:00,33.3,26.5,30.20,SSW,204,2.0,2.0,76,0.00,,,0.00,Wunderground v.1.15,2013-02-12 10:54:00,
2013-02-12 05:55:00,33.4,26.6,30.20,SSW,204,2.0,2.0,76,0.00,,,0.00,Wunderground v.1.15,2013-02-12 10:55:00,
2013-02-12 05:57:00,33.4,26.6,30.20,SSW,204,2.0,2.0,76,0.00,,,0.00,Wunderground v.1.15,2013-02-12 10:57:00,
2013-02-12 05:59:00,33.5,26.4,30.20,SSW,204,2.0,2.0,75,0.00,,,0.00,Wunderground v.1.15,2013-02-12 10:59:00,
2013-02-12 06:01:00,33.5,26.4,30.20,SSW,204,1.0,2.0,75,0.00,,,0.00,Wunderground v.1.15,2013-02-12 11:01:00,
2013-02-12 06:05:00,33.6,26.5,30.20,SSW,204,2.0,2.0,75,0.00,,,0.00,Wunderground v.1.15,2013-02-12 11:05:00,
2013-02-12 06:08:00,33.6,26.5,30.20,SSW,204,2.0,2.0,75,0.00,,,0.00,Wunderground v.1.15,2013-02-12 11:08:00,
2013-02-12 06:11:00,46.7,28.0,30.05,WSW,241,0.0,0.0,48,0.00,,,0.00,Wunderground v.1.15,2013-02-12 11:11:00,
2013-02-12 06:12:00,33.5,26.4,30.20,SSW,204,1.0,2.0,75,0.00,,,0.00,Wunderground v.1.15,2013-02-12 11:12:00,
2013-02-12 06:13:00,33.6,26.5,30.20,SSW,204,1.0,2.0,75,0.00,,,0.00,Wunderground v.1.15,2013-02-12 11:13:00,
2013-02-12 06:15:00,46.5,27.8,30.05,WSW,241,0.0,0.0,48,0.00,,,0.00,Wunderground v.1.15,2013-02-12 11:15:00,
2013-02-12 06:17:00,33.8,26.7,30.20,SSW,204,1.0,1.0,75,0.00,,,0.00,Wunderground v.1.15,2013-02-12 11:17:00,
2013-02-12 06:19:00,46.3,28.2,30.05,WSW,241,0.0,0.0,49,0.00,,,0.00,Wunderground v.1.15,2013-02-12 11:19:00,
2013-02-12 06:20:00,34.0,26.9,30.20,SSW,204,1.0,2.0,75,0.00,,,0.00,Wunderground v.1.15,2013-02-12 11:20:00,
2013-02-12 06:21:00,46.3,28.2,30.05,WSW,241,0.0,0.0,49,0.00,,,0.00,Wunderground v.1.15,2013-02-12 11:21:00,
2013-02-12 06:22:00,34.1,27.0,30.20,SSW,204,1.0,2.0,75,0.00,,,0.00,Wunderground v.1.15,2013-02-12 11:22:00,
2013-02-12 06:24:00,34.3,27.2,30.20,SSW,204,1.0,2.0,75,0.00,,,0.00,Wunderground v.1.15,2013-02-12 11:24:00,
2013-02-12 06:26:00,46.1,28.0,30.05,WSW,241,0.0,0.0,49,0.00,,,0.00,Wunderground v.1.15,2013-02-12 11:26:00,
2013-02-12 06:27:00,34.5,27.1,30.20,SSW,204,0.0,0.0,74,0.00,,,0.00,Wunderground v.1.15,2013-02-12 11:27:00,
2013-02-12 06:28:00,46.0,27.9,30.05,WSW,241,0.0,0.0,49,0.00,,,0.00,Wunderground v.1.15,2013-02-12 11:28:00,
2013-02-12 06:29:00,34.5,27.1,30.20,SSW,205,0.0,1.0,74,0.00,,,0.00,Wunderground v.1.15,2013-02-12 11:29:00,
2013-02-12 06:30:00,34.5,27.1,30.20,SSW,205,0.0,1.0,74,0.00,,,0.00,Wunderground v.1.15,2013-02-12 11:30:00,
2013-02-12 06:35:00,45.7,27.6,30.05,WSW,241,0.0,0.0,49,0.00,,,0.00,Wunderground v.1.15,2013-02-12 11:35:00,
2013-02-12 06:36:00,34.5,27.1,30.21,SSW,205,0.0,1.0,74,0.00,,,0.00,Wunderground v.1.15,2013-02-12 11:36:00,
2013-02-12 06:37:00,34.5,27.1,30.21,SSW,205,0.0,1.0,74,0.00,,,0.00,Wunderground v.1.15,2013-02-12 11:37:00,
2013-02-12 06:38:00,34.5,27.1,30.21,SSW,205,0.0,0.0,74,0.00,,,0.00,Wunderground v.1.15,2013-02-12 11:38:00,
2013-02-12 06:39:00,34.5,27.1,30.21,SSW,205,0.0,0.0,74,0.00,,,0.00,Wunderground v.1.15,2013-02-12 11:39:00,
2013-02-12 06:42:00,45.5,27.9,30.05,WSW,241,0.0,0.0,50,0.00,,,0.00,Wunderground v.1.15,2013-02-12 11:42:00,
2013-02-12 06:43:00,34.3,26.9,30.21,SSW,205,0.0,0.0,74,0.00,,,0.00,Wunderground v.1.15,2013-02-12 11:43:00,
2013-02-12 06:44:00,34.2,26.8,30.21,SSW,205,0.0,0.0,74,0.00,,,0.00,Wunderground v.1.15,2013-02-12 11:44:00,
2013-02-12 06:46:00,34.2,26.8,30.21,SSW,205,0.0,0.0,74,0.00,,,0.00,Wunderground v.1.15,2013-02-12 11:46:00,
2013-02-12 06:50:00,34.1,27.0,30.21,SSW,205,0.0,0.0,75,0.00,,,0.00,Wunderground v.1.15,2013-02-12 11:50:00,
2013-02-12 06:53:00,34.0,26.9,30.21,SSW,205,0.0,0.0,75,0.00,,,0.00,Wunderground v.1.15,2013-02-12 11:53:00,
2013-02-12 06:56:00,34.0,26.9,30.21,SSW,205,0.0,2.0,75,0.00,,,0.00,Wunderground v.1.15,2013-02-12 11:56:00,
2013-02-12 06:58:00,45.2,28.1,30.03,WSW,241,0.0,0.0,51,0.00,,,0.00,Wunderground v.1.15,2013-02-12 11:58:00,
2013-02-12 06:59:00,34.1,27.0,30.21,SSW,205,0.0,1.0,75,0.00,,,0.00,Wunderground v.1.15,2013-02-12 11:59:00,
2013-02-12 07:01:00,34.1,27.0,30.21,SSW,205,0.0,1.0,75,0.00,,,0.00,Wunderground v.1.15,2013-02-12 12:01:00,
2013-02-12 07:02:00,34.1,27.0,30.22,SSW,211,0.0,2.0,75,0.00,,,0.00,Wunderground v.1.15,2013-02-12 12:02:00,
2013-02-12 07:04:00,34.2,27.1,30.22,SSW,213,1.0,2.0,75,0.00,,,0.00,Wunderground v.1.15,2013-02-12 12:04:00,
2013-02-12 07:07:00,34.2,27.1,30.21,SSW,213,0.0,0.0,75,0.00,,,0.00,Wunderground v.1.15,2013-02-12 12:07:00,
2013-02-12 07:09:00,34.2,27.1,30.21,SSW,213,0.0,1.0,75,0.00,,,0.00,Wunderground v.1.15,2013-02-12 12:09:00,
2013-02-12 07:10:00,34.2,27.1,30.22,SSW,213,0.0,1.0,75,0.00,,,0.00,Wunderground v.1.15,2013-02-12 12:10:00,
2013-02-12 07:11:00,34.2,27.1,30.22,SSW,213,1.0,1.0,75,0.00,,,0.00,Wunderground v.1.15,2013-02-12 12:11:00,
2013-02-12 07:13:00,45.0,27.9,30.03,WSW,242,0.0,0.0,51,0.00,,,0.00,Wunderground v.1.15,2013-02-12 12:13:00,
2013-02-12 07:14:00,34.1,27.0,30.22,SSW,213,0.0,1.0,75,0.00,,,0.00,Wunderground v.1.15,2013-02-12 12:14:00,
2013-02-12 07:16:00,34.1,27.0,30.22,SSW,213,0.0,1.0,75,0.00,,,0.00,Wunderground v.1.15,2013-02-12 12:16:00,
2013-02-12 07:17:00,34.0,26.9,30.22,SSW,213,1.0,1.0,75,0.00,,,0.00,Wunderground v.1.15,2013-02-12 12:17:00,
2013-02-12 07:18:00,34.0,26.9,30.22,SSW,213,1.0,1.0,75,0.00,,,0.00,Wunderground v.1.15,2013-02-12 12:18:00,
2013-02-12 07:19:00,44.9,27.8,30.03,WSW,242,0.0,0.0,51,0.00,,,0.00,Wunderground v.1.15,2013-02-12 12:19:00,
2013-02-12 07:20:00,44.9,27.8,30.03,WSW,242,0.0,0.0,51,0.00,,,0.00,Wunderground v.1.15,2013-02-12 12:20:00,
2013-02-12 07:21:00,34.0,26.9,30.22,SSW,213,1.0,1.0,75,0.00,,,0.00,Wunderground v.1.15,2013-02-12 12:21:00,
2013-02-12 07:25:00,33.9,26.8,30.22,SSW,213,1.0,1.0,75,0.00,,,0.00,Wunderground v.1.15,2013-02-12 12:25:00,
2013-02-12 07:26:00,33.9,26.8,30.22,SSW,213,0.0,1.0,75,0.00,,,0.00,Wunderground v.1.15,2013-02-12 12:26:00,
2013-02-12 07:28:00,33.9,26.8,30.22,SSW,213,0.0,0.0,75,0.00,,,0.00,Wunderground v.1.15,2013-02-12 12:28:00,
2013-02-12 07:31:00,33.8,26.7,30.22,SSW,213,0.0,0.0,75,0.00,,,0.00,Wunderground v.1.15,2013-02-12 12:31:00,
2013-02-12 07:32:00,33.8,26.7,30.22,SSW,213,0.0,1.0,75,0.00,,,0.00,Wunderground v.1.15,2013-02-12 12:32:00,
2013-02-12 07:33:00,33.7,26.6,30.22,SSW,213,0.0,1.0,75,0.00,,,0.00,Wunderground v.1.15,2013-02-12 12:33:00,
2013-02-12 07:34:00,44.2,28.1,30.03,WSW,242,0.0,0.0,53,0.00,,,0.00,Wunderground v.1.15,2013-02-12 12:34:00,
2013-02-12 07:35:00,33.7,26.6,30.22,SSW,213,0.0,1.0,75,0.00,,,0.00,Wunderground v.1.15,2013-02-12 12:35:00,
2013-02-12 07:37:00,33.7,26.6,30.22,SSW,213,0.0,1.0,75,0.00,,,0.00,Wunderground v.1.15,2013-02-12 12:37:00,
2013-02-12 07:39:00,33.6,26.8,30.22,SSW,213,0.0,0.0,76,0.00,,,0.00,Wunderground v.1.15,2013-02-12 12:39:00,
2013-02-12 07:40:00,33.6,26.8,30.22,SSW,213,0.0,0.0,76,0.00,,,0.00,Wunderground v.1.15,2013-02-12 12:40:00,
2013-02-12 07:42:00,33.5,26.7,30.22,SSW,213,0.0,0.0,76,0.00,,,0.00,Wunderground v.1.15,2013-02-12 12:42:00,
2013-02-12 07:45:00,33.4,26.6,30.22,SSW,213,0.0,1.0,76,0.00,,,0.00,Wunderground v.1.15,2013-02-12 12:45:00,
2013-02-12 07:47:00,33.3,26.5,30.22,SSW,213,0.0,1.0,76,0.00,,,0.00,Wunderground v.1.15,2013-02-12 12:47:00,
2013-02-12 07:49:00,33.2,26.5,30.22,SSW,213,0.0,0.0,76,0.00,,,0.00,Wunderground v.1.15,2013-02-12 12:49:00,
2013-02-12 07:52:00,33.1,26.7,30.22,SSW,213,0.0,0.0,77,0.00,,,0.00,Wunderground v.1.15,2013-02-12 12:52:00,
2013-02-12 07:53:00,33.0,26.6,30.22,SSW,213,0.0,0.0,77,0.00,,,0.00,Wunderground v.1.15,2013-02-12 12:53:00,
2013-02-12 07:58:00,32.8,26.4,30.22,SSW,213,0.0,0.0,77,0.00,,,0.00,Wunderground v.1.15,2013-02-12 12:58:00,
2013-02-12 08:00:00,32.7,26.3,30.22,SSW,213,0.0,0.0,77,0.00,,,0.00,Wunderground v.1.15,2013-02-12 13:00:00,
2013-02-12 08:02:00,32.6,26.2,30.22,SSW,213,0.0,0.0,77,0.00,,,0.00,Wunderground v.1.15,2013-02-12 13:02:00,
2013-02-12 08:03:00,32.5,26.1,30.22,SSW,213,0.0,0.0,77,0.00,,,0.00,Wunderground v.1.15,2013-02-12 13:03:00,
2013-02-12 08:07:00,32.3,26.2,30.22,SSW,213,0.0,0.0,78,0.00,,,0.00,Wunderground v.1.15,2013-02-12 13:07:00,
2013-02-12 08:08:00,32.3,26.2,30.22,SSW,213,0.0,0.0,78,0.00,,,0.00,Wunderground v.1.15,2013-02-12 13:08:00,
2013-02-12 08:10:00,32.1,26.0,30.22,SSW,213,0.0,0.0,78,0.00,,,0.00,Wunderground v.1.15,2013-02-12 13:10:00,
2013-02-12 08:14:00,32.0,26.2,30.22,SSW,213,0.0,0.0,79,0.00,,,0.00,Wunderground v.1.15,2013-02-12 13:14:00,
2013-02-12 08:16:00,31.9,26.1,30.22,SSW,213,0.0,0.0,79,0.00,,,0.00,Wunderground v.1.15,2013-02-12 13:16:00,
2013-02-12 08:19:00,31.8,26.3,30.22,SSW,213,0.0,0.0,80,0.00,,,0.00,Wunderground v.1.15,2013-02-12 13:19:00,
2013-02-12 08:21:00,31.8,26.3,30.22,SSW,213,0.0,0.0,80,0.00,,,0.00,Wunderground v.1.15,2013-02-12 13:21:00,
2013-02-12 08:26:00,31.9,27.0,30.22,SSW,213,0.0,0.0,82,0.00,,,0.00,Wunderground v.1.15,2013-02-12 13:26:00,
2013-02-12 08:28:00,31.9,27.0,30.22,SSW,213,0.0,0.0,82,0.00,,,0.00,Wunderground v.1.15,2013-02-12 13:28:00,
2013-02-12 08:30:00,31.9,27.0,30.22,SSW,213,0.0,0.0,82,0.00,,,0.00,Wunderground v.1.15,2013-02-12 13:30:00,
2013-02-12 08:32:00,32.0,27.1,30.22,SSW,213,0.0,0.0,82,0.00,,,0.00,Wunderground v.1.15,2013-02-12 13:32:00,
2013-02-12 08:34:00,32.0,27.1,30.22,SSW,213,0.0,0.0,82,0.00,,,0.00,Wunderground v.1.15,2013-02-12 13:34:00,
2013-02-12 08:37:00,32.0,26.8,30.22,SSW,213,0.0,0.0,81,0.00,,,0.00,Wunderground v.1.15,2013-02-12 13:37:00,
2013-02-12 08:38:00,32.0,26.8,30.22,SSW,213,0.0,0.0,81,0.00,,,0.00,Wunderground v.1.15,2013-02-12 13:38:00,
2013-02-12 08:42:00,32.3,27.4,30.22,SSW,213,0.0,0.0,82,0.00,,,0.00,Wunderground v.1.15,2013-02-12 13:42:00,
2013-02-12 08:43:00,32.3,27.4,30.22,SSW,213,0.0,0.0,82,0.00,,,0.00,Wunderground v.1.15,2013-02-12 13:43:00,
2013-02-12 08:44:00,32.4,27.5,30.23,SSW,213,0.0,0.0,82,0.00,,,0.00,Wunderground v.1.15,2013-02-12 13:44:00,
2013-02-12 08:47:00,32.6,28.0,30.23,SSW,213,0.0,0.0,83,0.00,,,0.00,Wunderground v.1.15,2013-02-12 13:47:00,
2013-02-12 08:49:00,32.7,28.1,30.23,SSW,213,0.0,0.0,83,0.00,,,0.00,Wunderground v.1.15,2013-02-12 13:49:00,
2013-02-12 08:50:00,32.7,28.1,30.23,SSW,213,0.0,0.0,83,0.00,,,0.00,Wunderground v.1.15,2013-02-12 13:50:00,
2013-02-12 08:54:00,32.8,28.2,30.23,SSW,213,0.0,0.0,83,0.00,,,0.00,Wunderground v.1.15,2013-02-12 13:54:00,
2013-02-12 08:55:00,32.8,28.2,30.23,SSW,213,0.0,0.0,83,0.00,,,0.00,Wunderground v.1.15,2013-02-12 13:55:00,
2013-02-12 08:56:00,32.9,28.3,30.22,SSW,213,0.0,0.0,83,0.00,,,0.00,Wunderground v.1.15,2013-02-12 13:56:00,
2013-02-12 09:01:00,33.3,28.1,30.22,SSW,213,0.0,0.0,81,0.00,,,0.00,Wunderground v.1.15,2013-02-12 14:01:00,
2013-02-12 09:03:00,33.5,28.3,30.22,SSW,213,0.0,0.0,81,0.00,,,0.00,Wunderground v.1.15,2013-02-12 14:03:00,
2013-02-12 09:07:00,33.8,28.6,30.22,SSW,213,0.0,0.0,81,0.00,,,0.00,Wunderground v.1.15,2013-02-12 14:07:00,
2013-02-12 09:09:00,33.9,28.7,30.23,SSW,213,0.0,1.0,81,0.00,,,0.00,Wunderground v.1.15,2013-02-12 14:09:00,
2013-02-12 09:12:00,34.3,28.8,30.22,SSW,213,0.0,1.0,80,0.00,,,0.00,Wunderground v.1.15,2013-02-12 14:12:00,
2013-02-12 09:16:00,34.4,28.6,30.22,SSW,213,0.0,1.0,79,0.00,,,0.00,Wunderground v.1.15,2013-02-12 14:16:00,
2013-02-12 09:21:00,34.8,29.3,30.22,SSW,213,0.0,1.0,80,0.00,,,0.00,Wunderground v.1.15,2013-02-12 14:21:00,
2013-02-12 09:23:00,35.1,29.2,30.22,SSW,213,0.0,1.0,79,0.00,,,0.00,Wunderground v.1.15,2013-02-12 14:23:00,
2013-02-12 09:25:00,35.4,29.2,30.22,SSW,213,0.0,2.0,78,0.00,,,0.00,Wunderground v.1.15,2013-02-12 14:25:00,
2013-02-12 09:28:00,35.7,29.5,30.22,SSW,213,0.0,0.0,78,0.00,,,0.00,Wunderground v.1.15,2013-02-12 14:28:00,
2013-02-12 09:30:00,35.8,29.3,30.22,SSW,213,0.0,2.0,77,0.00,,,0.00,Wunderground v.1.15,2013-02-12 14:30:00,
2013-02-12 09:32:00,36.1,29.3,30.22,SSW,213,0.0,2.0,76,0.00,,,0.00,Wunderground v.1.15,2013-02-12 14:32:00,
2013-02-12 09:35:00,36.3,29.1,30.21,SSW,213,0.0,2.0,75,0.00,,,0.00,Wunderground v.1.15,2013-02-12 14:35:00,
2013-02-12 09:38:00,36.5,29.0,30.21,South,183,0.0,2.0,74,0.00,,,0.00,Wunderground v.1.15,2013-02-12 14:38:00,
2013-02-12 09:39:00,36.6,29.4,30.21,South,180,0.0,2.0,75,0.00,,,0.00,Wunderground v.1.15,2013-02-12 14:39:00,
2013-02-12 09:44:00,37.1,29.2,30.21,SE,134,1.0,2.0,73,0.00,,,0.00,Wunderground v.1.15,2013-02-12 14:44:00,
2013-02-12 09:45:00,37.1,29.2,30.21,ESE,111,1.0,2.0,73,0.00,,,0.00,Wunderground v.1.15,2013-02-12 14:45:00,
2013-02-12 09:47:00,37.3,29.1,30.21,ESE,111,1.0,2.0,72,0.00,,,0.00,Wunderground v.1.15,2013-02-12 14:47:00,
2013-02-12 09:52:00,37.7,29.5,30.21,ESE,108,1.0,2.0,72,0.00,,,0.00,Wunderground v.1.15,2013-02-12 14:52:00,
2013-02-12 09:54:00,37.8,29.2,30.21,ESE,108,1.0,2.0,71,0.00,,,0.00,Wunderground v.1.15,2013-02-12 14:54:00,
2013-02-12 09:55:00,37.9,29.3,30.21,ESE,108,1.0,2.0,71,0.00,,,0.00,Wunderground v.1.15,2013-02-12 14:55:00,
2013-02-12 10:01:00,38.2,30.3,30.20,ENE,69,1.0,2.0,73,0.00,,,0.00,Wunderground v.1.15,2013-02-12 15:01:00,
2013-02-12 10:04:00,38.4,30.5,30.20,East,86,2.0,3.0,73,0.00,,,0.00,Wunderground v.1.15,2013-02-12 15:04:00,
2013-02-12 10:08:00,38.4,29.8,30.20,East,86,2.0,2.0,71,0.00,,,0.00,Wunderground v.1.15,2013-02-12 15:08:00,
2013-02-12 10:10:00,38.5,29.9,30.20,ENE,59,2.0,3.0,71,0.00,,,0.00,Wunderground v.1.15,2013-02-12 15:10:00,
2013-02-12 10:14:00,38.7,29.8,30.21,ENE,59,2.0,3.0,70,0.00,,,0.00,Wunderground v.1.15,2013-02-12 15:14:00,
2013-02-12 10:17:00,38.8,29.8,30.21,ENE,59,1.0,3.0,70,0.00,,,0.00,Wunderground v.1.15,2013-02-12 15:17:00,
2013-02-12 10:18:00,38.9,29.6,30.21,East,84,1.0,3.0,69,0.00,,,0.00,Wunderground v.1.15,2013-02-12 15:18:00,
2013-02-12 10:20:00,39.1,30.1,30.21,East,85,1.0,3.0,70,0.00,,,0.00,Wunderground v.1.15,2013-02-12 15:20:00,
2013-02-12 10:24:00,39.4,29.7,30.21,East,85,1.0,3.0,68,0.00,,,0.00,Wunderground v.1.15,2013-02-12 15:24:00,
2013-02-12 10:27:00,39.6,29.9,30.21,East,85,2.0,3.0,68,0.00,,,0.00,Wunderground v.1.15,2013-02-12 15:27:00,
2013-02-12 10:30:00,39.7,29.3,30.21,ENE,78,2.0,3.0,66,0.00,,,0.00,Wunderground v.1.15,2013-02-12 15:30:00,
2013-02-12 10:31:00,39.7,29.6,30.21,ENE,78,2.0,3.0,67,0.00,,,0.00,Wunderground v.1.15,2013-02-12 15:31:00,
2013-02-12 10:35:00,39.9,29.5,30.20,NE,51,2.0,3.0,66,0.00,,,0.00,Wunderground v.1.15,2013-02-12 15:35:00,
2013-02-12 10:38:00,40.1,29.6,30.20,East,81,2.0,2.0,66,0.00,,,0.00,Wunderground v.1.15,2013-02-12 15:38:00,
2013-02-12 10:40:00,40.3,30.2,30.19,North,5,2.0,2.0,67,0.00,,,0.00,Wunderground v.1.15,2013-02-12 15:40:00,
2013-02-12 10:44:00,40.5,29.7,30.19,ENE,65,2.0,3.0,65,0.00,,,0.00,Wunderground v.1.15,2013-02-12 15:44:00,
2013-02-12 10:46:00,40.6,30.1,30.19,ENE,58,2.0,3.0,66,0.00,,,0.00,Wunderground v.1.15,2013-02-12 15:46:00,
2013-02-12 10:47:00,40.7,29.8,30.19,ENE,78,2.0,2.0,65,0.00,,,0.00,Wunderground v.1.15,2013-02-12 15:47:00,
2013-02-12 10:51:00,41.0,30.1,30.19,East,90,2.0,3.0,65,0.00,,,0.00,Wunderground v.1.15,2013-02-12 15:51:00,
2013-02-12 10:53:00,41.2,29.9,30.19,East,89,2.0,3.0,64,0.00,,,0.00,Wunderground v.1.15,2013-02-12 15:53:00,
2013-02-12 10:57:00,41.5,30.2,30.19,ENE,68,1.0,2.0,64,0.00,,,0.00,Wunderground v.1.15,2013-02-12 15:57:00,
2013-02-12 10:59:00,41.5,29.8,30.19,ENE,70,1.0,2.0,63,0.00,,,0.00,Wunderground v.1.15,2013-02-12 15:59:00,
2013-02-12 11:00:00,41.5,29.8,30.19,ENE,61,1.0,2.0,63,0.00,,,0.00,Wunderground v.1.15,2013-02-12 16:00:00,
2013-02-12 11:03:00,41.5,29.4,30.20,ENE,61,1.0,2.0,62,0.00,,,0.00,Wunderground v.1.15,2013-02-12 16:03:00,
2013-02-12 11:04:00,41.5,29.8,30.20,ENE,61,1.0,2.0,63,0.00,,,0.00,Wunderground v.1.15,2013-02-12 16:04:00,
2013-02-12 11:05:00,41.6,29.9,30.20,North,9,1.0,3.0,63,0.00,,,0.00,Wunderground v.1.15,2013-02-12 16:05:00,
2013-02-12 11:11:00,41.5,29.8,30.20,NE,45,2.0,3.0,63,0.00,,,0.00,Wunderground v.1.15,2013-02-12 16:11:00,
2013-02-12 11:12:00,41.5,29.8,30.19,NE,45,2.0,3.0,63,0.00,,,0.00,Wunderground v.1.15,2013-02-12 16:12:00,
2013-02-12 11:16:00,41.8,30.5,30.18,NW,315,2.0,5.0,64,0.00,,,0.00,Wunderground v.1.15,2013-02-12 16:16:00,
2013-02-12 11:17:00,41.9,30.2,30.18,NW,315,2.0,5.0,63,0.00,,,0.00,Wunderground v.1.15,2013-02-12 16:17:00,
2013-02-12 11:18:00,42.0,29.9,30.17,NW,317,2.0,3.0,62,0.00,,,0.00,Wunderground v.1.15,2013-02-12 16:18:00,
2013-02-12 11:23:00,42.2,30.1,30.18,ESE,111,3.0,4.0,62,0.00,,,0.00,Wunderground v.1.15,2013-02-12 16:23:00,
2013-02-12 11:27:00,42.5,30.0,30.17,ENE,77,2.0,4.0,61,0.00,,,0.00,Wunderground v.1.15,2013-02-12 16:27:00,
2013-02-12 11:29:00,42.7,30.6,30.17,ENE,59,2.0,3.0,62,0.00,,,0.00,Wunderground v.1.15,2013-02-12 16:29:00,
2013-02-12 11:30:00,42.8,30.3,30.17,ENE,78,2.0,3.0,61,0.00,,,0.00,Wunderground v.1.15,2013-02-12 16:30:00,
2013-02-12 11:34:00,43.2,30.6,30.17,SSE,165,2.0,3.0,61,0.00,,,0.00,Wunderground v.1.15,2013-02-12 16:34:00,
2013-02-12 11:36:00,43.5,30.5,30.17,NNE,32,2.0,4.0,60,0.00,,,0.00,Wunderground v.1.15,2013-02-12 16:36:00,
2013-02-12 11:37:00,43.6,30.2,30.17,NE,38,2.0,4.0,59,0.00,,,0.00,Wunderground v.1.15,2013-02-12 16:37:00,
2013-02-12 11:38:00,43.6,30.2,30.16,NNW,340,2.0,2.0,59,0.00,,,0.00,Wunderground v.1.15,2013-02-12 16:38:00,
2013-02-12 11:42:00,43.5,30.1,30.16,North,355,2.0,4.0,59,0.00,,,0.00,Wunderground v.1.15,2013-02-12 16:42:00,
2013-02-12 11:45:00,43.7,30.3,30.15,NW,306,2.0,5.0,59,0.00,,,0.00,Wunderground v.1.15,2013-02-12 16:45:00,
2013-02-12 11:47:00,43.9,30.1,30.15,NNE,23,2.0,5.0,58,0.00,,,0.00,Wunderground v.1.15,2013-02-12 16:47:00,
2013-02-12 11:48:00,44.1,30.7,30.15,NW,320,2.0,2.0,59,0.00,,,0.00,Wunderground v.1.15,2013-02-12 16:48:00,
2013-02-12 11:49:00,44.2,30.3,30.15,NW,308,3.0,5.0,58,0.00,,,0.00,Wunderground v.1.15,2013-02-12 16:49:00,
2013-02-12 11:52:00,44.1,30.3,30.16,NNE,32,3.0,5.0,58,0.00,,,0.00,Wunderground v.1.15,2013-02-12 16:52:00,
2013-02-12 11:55:00,44.1,29.8,30.16,ESE,110,3.0,5.0,57,0.00,,,0.00,Wunderground v.1.15,2013-02-12 16:55:00,
2013-02-12 11:57:00,44.5,30.6,30.16,East,92,3.0,5.0,58,0.00,,,0.00,Wunderground v.1.15,2013-02-12 16:57:00,
2013-02-12 12:00:00,45.0,30.2,30.17,NW,321,2.0,4.0,56,0.00,,,0.00,Wunderground v.1.15,2013-02-12 17:00:00,
2013-02-12 12:02:00,45.1,30.3,30.17,West,275,2.0,4.0,56,0.00,,,0.00,Wunderground v.1.15,2013-02-12 17:02:00,
2013-02-12 12:03:00,45.1,30.3,30.17,WSW,256,2.0,4.0,56,0.00,,,0.00,Wunderground v.1.15,2013-02-12 17:03:00,
2013-02-12 12:04:00,38.6,31.7,29.95,North,355,1.0,2.0,76,0.00,,,0.00,Wunderground v.1.15,2013-02-12 17:04:00,
2013-02-12 12:05:00,45.3,30.5,30.16,NNW,327,2.0,4.0,56,0.00,,,0.00,Wunderground v.1.15,2013-02-12 17:05:00,
2013-02-12 12:06:00,38.5,31.6,29.94,North,355,1.0,2.0,76,0.00,,,0.00,Wunderground v.1.15,2013-02-12 17:06:00,
2013-02-12 12:07:00,38.4,31.5,29.95,North,5,1.0,2.0,76,0.00,,,0.00,Wunderground v.1.15,2013-02-12 17:07:00,
2013-02-12 12:08:00,38.4,31.5,29.95,North,5,1.0,2.0,76,0.00,,,0.00,Wunderground v.1.15,2013-02-12 17:08:00,
2013-02-12 12:09:00,38.3,31.4,29.95,North,5,1.0,2.0,76,0.00,,,0.00,Wunderground v.1.15,2013-02-12 17:09:00,
2013-02-12 12:10:00,38.2,31.3,29.95,North,5,1.0,1.0,76,0.00,,,0.00,Wunderground v.1.15,2013-02-12 17:10:00,
2013-02-12 12:11:00,45.2,29.5,30.15,NNW,344,2.0,2.0,54,0.00,,,0.00,Wunderground v.1.15,2013-02-12 17:11:00,
2013-02-12 12:12:00,45.3,30.1,30.15,ENE,69,2.0,3.0,55,0.00,,,0.00,Wunderground v.1.15,2013-02-12 17:12:00,
2013-02-12 12:13:00,38.2,31.3,29.94,NNE,21,1.0,2.0,76,0.00,,,0.00,Wunderground v.1.15,2013-02-12 17:13:00,
2013-02-12 12:14:00,45.6,30.8,30.15,ENE,75,2.0,3.0,56,0.00,,,0.00,Wunderground v.1.15,2013-02-12 17:14:00,
2013-02-12 12:15:00,38.1,31.2,29.94,NNE,22,1.0,2.0,76,0.00,,,0.00,Wunderground v.1.15,2013-02-12 17:15:00,
2013-02-12 12:16:00,46.0,30.3,30.14,NNE,24,2.0,3.0,54,0.00,,,0.00,Wunderground v.1.15,2013-02-12 17:16:00,
2013-02-12 12:17:00,38.2,31.0,29.94,North,5,1.0,2.0,75,0.00,,,0.00,Wunderground v.1.15,2013-02-12 17:17:00,
2013-02-12 12:18:00,38.3,30.7,29.94,North,5,1.0,2.0,74,0.00,,,0.00,Wunderground v.1.15,2013-02-12 17:18:00,
2013-02-12 12:19:00,46.2,30.0,30.14,East,89,1.0,3.0,53,0.00,,,0.00,Wunderground v.1.15,2013-02-12 17:19:00,
2013-02-12 12:20:00,46.3,30.1,30.14,East,88,1.0,3.0,53,0.00,,,0.00,Wunderground v.1.15,2013-02-12 17:20:00,
2013-02-12 12:21:00,46.4,31.1,30.14,East,91,2.0,3.0,55,0.00,,,0.00,Wunderground v.1.15,2013-02-12 17:21:00,
2013-02-12 12:22:00,38.5,30.9,29.94,North,9,1.0,1.0,74,0.00,,,0.00,Wunderground v.1.15,2013-02-12 17:22:00,
2013-02-12 12:23:00,38.5,30.9,29.94,North,9,1.0,1.0,74,0.00,,,0.00,Wunderground v.1.15,2013-02-12 17:23:00,
2013-02-12 12:24:00,46.5,30.3,30.14,ENE,61,2.0,4.0,53,0.00,,,0.00,Wunderground v.1.15,2013-02-12 17:24:00,
2013-02-12 12:25:00,38.6,31.0,29.94,North,9,0.0,1.0,74,0.00,,,0.00,Wunderground v.1.15,2013-02-12 17:25:00,
2013-02-12 12:26:00,46.5,30.3,30.14,East,91,2.0,4.0,53,0.00,,,0.00,Wunderground v.1.15,2013-02-12 17:26:00,
2013-02-12 12:27:00,46.5,31.2,30.14,East,86,3.0,3.0,55,0.00,,,0.00,Wunderground v.1.15,2013-02-12 17:27:00,
2013-02-12 12:28:00,38.7,31.1,29.94,NE,49,0.0,2.0,74,0.00,,,0.00,Wunderground v.1.15,2013-02-12 17:28:00,
2013-02-12 12:29:00,46.7,30.5,30.14,ENE,77,3.0,3.0,53,0.00,,,0.00,Wunderground v.1.15,2013-02-12 17:29:00,
2013-02-12 12:30:00,38.7,30.8,29.94,NE,46,0.0,0.0,73,0.00,,,0.00,Wunderground v.1.15,2013-02-12 17:30:00,
2013-02-12 12:31:00,38.7,30.4,29.94,NE,46,0.0,0.0,72,0.00,,,0.00,Wunderground v.1.15,2013-02-12 17:31:00,
2013-02-12 12:32:00,46.7,30.0,30.15,ENE,71,3.0,3.0,52,0.00,,,0.00,Wunderground v.1.15,2013-02-12 17:32:00,
2013-02-12 12:33:00,38.7,30.4,29.94,NNE,26,0.0,2.0,72,0.00,,,0.00,Wunderground v.1.15,2013-02-12 17:33:00,
2013-02-12 12:34:00,38.8,30.5,29.94,NNE,26,1.0,2.0,72,0.00,,,0.00,Wunderground v.1.15,2013-02-12 17:34:00,
2013-02-12 12:35:00,38.8,30.5,29.94,NNE,33,1.0,2.0,72,0.00,,,0.00,Wunderground v.1.15,2013-02-12 17:35:00,
2013-02-12 12:36:00,47.0,30.3,30.16,ENE,74,2.0,3.0,52,0.00,,,0.00,Wunderground v.1.15,2013-02-12 17:36:00,
2013-02-12 12:37:00,38.9,30.3,29.94,ENE,65,1.0,2.0,71,0.00,,,0.00,Wunderground v.1.15,2013-02-12 17:37:00,
2013-02-12 12:38:00,47.1,30.4,30.16,ENE,74,2.0,2.0,52,0.00,,,0.00,Wunderground v.1.15,2013-02-12 17:38:00,
2013-02-12 12:39:00,39.1,30.1,29.94,NNE,17,1.0,2.0,70,0.00,,,0.00,Wunderground v.1.15,2013-02-12 17:39:00,
2013-02-12 12:40:00,47.2,30.5,30.16,ENE,74,1.0,2.0,52,0.00,,,0.00,Wunderground v.1.15,2013-02-12 17:40:00,
2013-02-12 12:41:00,39.3,30.0,29.94,NE,42,2.0,2.0,69,0.00,,,0.00,Wunderground v.1.15,2013-02-12 17:41:00,
2013-02-12 12:42:00,47.4,30.2,30.16,East,88,1.0,2.0,51,0.00,,,0.00,Wunderground v.1.15,2013-02-12 17:42:00,
2013-02-12 12:43:00,47.5,30.7,30.16,SSE,159,1.0,2.0,52,0.00,,,0.00,Wunderground v.1.15,2013-02-12 17:43:00,
2013-02-12 12:44:00,39.6,30.3,29.94,NE,42,2.0,2.0,69,0.00,,,0.00,Wunderground v.1.15,2013-02-12 17:44:00,
2013-02-12 12:45:00,47.6,30.3,30.16,SSE,159,1.0,2.0,51,0.00,,,0.00,Wunderground v.1.15,2013-02-12 17:45:00,
2013-02-12 12:46:00,39.7,30.0,29.94,NNE,19,2.0,3.0,68,0.00,,,0.00,Wunderground v.1.15,2013-02-12 17:46:00,
2013-02-12 12:47:00,48.0,31.2,30.16,SSE,162,1.0,2.0,52,0.00,,,0.00,Wunderground v.1.15,2013-02-12 17:47:00,
2013-02-12 12:48:00,39.8,30.1,29.94,NE,49,1.0,4.0,68,0.00,,,0.00,Wunderground v.1.15,2013-02-12 17:48:00,
2013-02-12 12:49:00,39.8,30.1,29.94,NE,46,1.0,4.0,68,0.00,,,0.00,Wunderground v.1.15,2013-02-12 17:49:00,
2013-02-12 12:50:00,48.5,30.7,30.16,SE,138,1.0,3.0,50,0.00,,,0.00,Wunderground v.1.15,2013-02-12 17:50:00,
2013-02-12 12:51:00,48.6,30.8,30.16,SE,138,1.0,3.0,50,0.00,,,0.00,Wunderground v.1.15,2013-02-12 17:51:00,
2013-02-12 12:52:00,39.9,29.8,29.94,NNE,28,1.0,2.0,67,0.00,,,0.00,Wunderground v.1.15,2013-02-12 17:52:00,
2013-02-12 12:53:00,40.0,29.9,29.94,NNE,18,2.0,2.0,67,0.00,,,0.00,Wunderground v.1.15,2013-02-12 17:53:00,
2013-02-12 12:54:00,48.8,31.0,30.16,SE,138,1.0,3.0,50,0.00,,,0.00,Wunderground v.1.15,2013-02-12 17:54:00,
2013-02-12 12:55:00,48.7,30.9,30.16,West,274,1.0,3.0,50,0.00,,,0.00,Wunderground v.1.15,2013-02-12 17:55:00,
2013-02-12 12:56:00,40.0,29.9,29.94,North,9,2.0,3.0,67,0.00,,,0.00,Wunderground v.1.15,2013-02-12 17:56:00,
2013-02-12 12:57:00,40.0,29.9,29.94,North,9,2.0,3.0,67,0.00,,,0.00,Wunderground v.1.15,2013-02-12 17:57:00,
2013-02-12 12:58:00,48.3,30.5,30.15,NW,304,1.0,4.0,50,0.00,,,0.00,Wunderground v.1.15,2013-02-12 17:58:00,
2013-02-12 12:59:00,40.0,29.9,29.94,NE,47,2.0,3.0,67,0.00,,,0.00,Wunderground v.1.15,2013-02-12 17:59:00,
2013-02-12 13:00:00,48.1,30.3,30.15,NW,306,1.0,4.0,50,0.00,,,0.00,Wunderground v.1.15,2013-02-12 18:00:00,
2013-02-12 13:02:00,40.1,30.0,29.94,NE,45,2.0,2.0,67,0.00,,,0.00,Wunderground v.1.15,2013-02-12 18:02:00,
2013-02-12 13:03:00,47.5,30.3,30.16,WNW,285,2.0,4.0,51,0.00,,,0.00,Wunderground v.1.15,2013-02-12 18:03:00,
2013-02-12 13:06:00,47.1,29.4,30.16,WSW,253,2.0,4.0,50,0.00,,,0.00,Wunderground v.1.15,2013-02-12 18:06:00,
2013-02-12 13:07:00,40.0,29.9,29.93,NE,37,2.0,3.0,67,0.00,,,0.00,Wunderground v.1.15,2013-02-12 18:07:00,
2013-02-12 13:08:00,46.9,29.2,30.16,West,262,2.0,2.0,50,0.00,,,0.00,Wunderground v.1.15,2013-02-12 18:08:00,
2013-02-12 13:09:00,39.9,29.8,29.93,ENE,74,2.0,3.0,67,0.00,,,0.00,Wunderground v.1.15,2013-02-12 18:09:00,
2013-02-12 13:10:00,46.9,29.2,30.16,SSE,158,2.0,2.0,50,0.00,,,0.00,Wunderground v.1.15,2013-02-12 18:10:00,
2013-02-12 13:11:00,47.0,29.8,30.16,WSW,244,1.0,2.0,51,0.00,,,0.00,Wunderground v.1.15,2013-02-12 18:11:00,
2013-02-12 13:12:00,39.8,29.7,29.93,ENE,74,2.0,2.0,67,0.00,,,0.00,Wunderground v.1.15,2013-02-12 18:12:00,
2013-02-12 13:13:00,39.8,29.7,29.93,NE,53,2.0,4.0,67,0.00,,,0.00,Wunderground v.1.15,2013-02-12 18:13:00,
2013-02-12 13:14:00,39.8,29.7,29.93,NE,53,2.0,4.0,67,0.00,,,0.00,Wunderground v.1.15,2013-02-12 18:14:00,
2013-02-12 13:15:00,47.1,28.9,30.16,WSW,242,1.0,2.0,49,0.00,,,0.00,Wunderground v.1.15,2013-02-12 18:15:00,
2013-02-12 13:17:00,39.8,29.7,29.93,NE,53,2.0,4.0,67,0.00,,,0.00,Wunderground v.1.15,2013-02-12 18:17:00,
2013-02-12 13:18:00,39.8,29.7,29.93,NE,47,2.0,4.0,67,0.00,,,0.00,Wunderground v.1.15,2013-02-12 18:18:00,
2013-02-12 13:19:00,47.8,30.5,30.16,WSW,252,1.0,1.0,51,0.00,,,0.00,Wunderground v.1.15,2013-02-12 18:19:00,
2013-02-12 13:20:00,47.9,29.6,30.16,WSW,252,1.0,1.0,49,0.00,,,0.00,Wunderground v.1.15,2013-02-12 18:20:00,
2013-02-12 13:21:00,39.8,29.7,29.93,NE,47,2.0,2.0,67,0.00,,,0.00,Wunderground v.1.15,2013-02-12 18:21:00,
2013-02-12 13:24:00,48.1,29.8,30.16,SSW,199,1.0,2.0,49,0.00,,,0.00,Wunderground v.1.15,2013-02-12 18:24:00,
2013-02-12 13:25:00,48.2,29.4,30.16,South,188,1.0,2.0,48,0.00,,,0.00,Wunderground v.1.15,2013-02-12 18:25:00,
2013-02-12 13:26:00,48.3,29.5,30.16,South,188,1.0,2.0,48,0.00,,,0.00,Wunderground v.1.15,2013-02-12 18:26:00,
2013-02-12 13:27:00,39.8,29.7,29.92,NE,50,2.0,2.0,67,0.00,,,0.00,Wunderground v.1.15,2013-02-12 18:27:00,
2013-02-12 13:28:00,39.8,29.7,29.92,NE,50,2.0,2.0,67,0.00,,,0.00,Wunderground v.1.15,2013-02-12 18:28:00,
2013-02-12 13:30:00,48.6,29.3,30.16,South,190,2.0,4.0,47,0.00,,,0.00,Wunderground v.1.15,2013-02-12 18:30:00,
2013-02-12 13:31:00,48.7,30.4,30.16,SW,219,2.0,4.0,49,0.00,,,0.00,Wunderground v.1.15,2013-02-12 18:31:00,
2013-02-12 13:36:00,49.3,30.4,30.16,SW,226,2.0,4.0,48,0.00,,,0.00,Wunderground v.1.15,2013-02-12 18:36:00,
2013-02-12 13:38:00,49.3,28.8,30.16,SSW,212,3.0,3.0,45,0.00,,,0.00,Wunderground v.1.15,2013-02-12 18:38:00,
2013-02-12 13:41:00,49.0,28.6,30.16,SSW,202,2.0,4.0,45,0.00,,,0.00,Wunderground v.1.15,2013-02-12 18:41:00,
2013-02-12 13:44:00,49.0,27.5,30.16,SW,234,2.0,4.0,43,0.00,,,0.00,Wunderground v.1.15,2013-02-12 18:44:00,
2013-02-12 13:45:00,48.9,27.4,30.16,SW,234,2.0,4.0,43,0.00,,,0.00,Wunderground v.1.15,2013-02-12 18:45:00,
2013-02-12 13:46:00,48.9,27.9,30.16,SW,234,2.0,4.0,44,0.00,,,0.00,Wunderground v.1.15,2013-02-12 18:46:00,
2013-02-12 13:48:00,48.9,27.9,30.16,SW,236,2.0,5.0,44,0.00,,,0.00,Wunderground v.1.15,2013-02-12 18:48:00,
2013-02-12 13:49:00,40.0,29.9,29.92,NE,41,1.0,2.0,67,0.00,,,0.00,Wunderground v.1.15,2013-02-12 18:49:00,
2013-02-12 13:50:00,49.0,28.6,30.16,South,187,2.0,6.0,45,0.00,,,0.00,Wunderground v.1.15,2013-02-12 18:50:00,
2013-02-12 13:53:00,49.5,29.6,30.16,South,187,3.0,6.0,46,0.00,,,0.00,Wunderground v.1.15,2013-02-12 18:53:00,
2013-02-12 13:54:00,49.6,29.1,30.15,SSW,201,3.0,6.0,45,0.00,,,0.00,Wunderground v.1.15,2013-02-12 18:54:00,
2013-02-12 13:57:00,49.4,28.4,30.15,South,171,4.0,6.0,44,0.00,,,0.00,Wunderground v.1.15,2013-02-12 18:57:00,
2013-02-12 13:58:00,49.4,28.4,30.15,South,171,4.0,4.0,44,0.00,,,0.00,Wunderground v.1.15,2013-02-12 18:58:00,
2013-02-12 14:00:00,49.2,28.2,30.15,WSW,254,3.0,4.0,44,0.00,,,0.00,Wunderground v.1.15,2013-02-12 19:00:00,
2013-02-12 14:02:00,40.0,29.6,29.93,NNE,19,2.0,2.0,66,0.00,,,0.00,Wunderground v.1.15,2013-02-12 19:02:00,
2013-02-12 14:03:00,49.1,28.7,30.15,SW,227,3.0,4.0,45,0.00,,,0.00,Wunderground v.1.15,2013-02-12 19:03:00,
2013-02-12 14:05:00,49.1,29.2,30.15,WNW,282,3.0,6.0,46,0.00,,,0.00,Wunderground v.1.15,2013-02-12 19:05:00,
2013-02-12 14:07:00,48.9,29.0,30.15,WNW,288,3.0,6.0,46,0.00,,,0.00,Wunderground v.1.15,2013-02-12 19:07:00,
2013-02-12 14:10:00,48.9,29.5,30.14,NW,315,3.0,3.0,47,0.00,,,0.00,Wunderground v.1.15,2013-02-12 19:10:00,
2013-02-12 14:11:00,40.2,30.1,29.93,NNE,28,2.0,3.0,67,0.00,,,0.00,Wunderground v.1.15,2013-02-12 19:11:00,
2013-02-12 14:12:00,49.0,30.1,30.14,NW,315,3.0,3.0,48,0.00,,,0.00,Wunderground v.1.15,2013-02-12 19:12:00,
2013-02-12 14:13:00,49.2,29.3,30.14,NW,313,3.0,3.0,46,0.00,,,0.00,Wunderground v.1.15,2013-02-12 19:13:00,
2013-02-12 14:14:00,49.4,29.5,30.13,WSW,242,2.0,4.0,46,0.00,,,0.00,Wunderground v.1.15,2013-02-12 19:14:00,
2013-02-12 14:17:00,49.6,29.1,30.13,SW,217,2.0,4.0,45,0.00,,,0.00,Wunderground v.1.15,2013-02-12 19:17:00,
2013-02-12 14:19:00,49.7,29.7,30.13,SW,231,2.0,4.0,46,0.00,,,0.00,Wunderground v.1.15,2013-02-12 19:19:00,
2013-02-12 14:20:00,49.7,29.7,30.13,SW,224,2.0,4.0,46,0.00,,,0.00,Wunderground v.1.15,2013-02-12 19:20:00,
2013-02-12 14:21:00,49.8,29.8,30.13,WSW,257,2.0,4.0,46,0.00,,,0.00,Wunderground v.1.15,2013-02-12 19:21:00,
2013-02-12 14:24:00,50.0,29.5,30.13,South,180,3.0,4.0,45,0.00,,,0.00,Wunderground v.1.15,2013-02-12 19:24:00,
2013-02-12 14:25:00,50.0,28.9,30.13,SW,214,3.0,4.0,44,0.00,,,0.00,Wunderground v.1.15,2013-02-12 19:25:00,
2013-02-12 14:27:00,40.1,30.0,29.92,NE,52,2.0,4.0,67,0.00,,,0.00,Wunderground v.1.15,2013-02-12 19:27:00,
2013-02-12 14:29:00,49.5,27.9,30.13,SW,221,2.0,3.0,43,0.00,,,0.00,Wunderground v.1.15,2013-02-12 19:29:00,
2013-02-12 14:30:00,49.2,28.2,30.13,SW,224,2.0,3.0,44,0.00,,,0.00,Wunderground v.1.15,2013-02-12 19:30:00,
2013-02-12 14:31:00,49.2,28.7,30.13,SW,226,2.0,3.0,45,0.00,,,0.00,Wunderground v.1.15,2013-02-12 19:31:00,
2013-02-12 14:34:00,49.1,29.2,30.13,South,188,2.0,3.0,46,0.00,,,0.00,Wunderground v.1.15,2013-02-12 19:34:00,
2013-02-12 14:35:00,49.2,29.3,30.13,West,275,2.0,3.0,46,0.00,,,0.00,Wunderground v.1.15,2013-02-12 19:35:00,
2013-02-12 14:40:00,49.3,29.4,30.13,SW,220,1.0,3.0,46,0.00,,,0.00,Wunderground v.1.15,2013-02-12 19:40:00,
2013-02-12 14:42:00,49.3,29.9,30.13,SW,221,2.0,3.0,47,0.00,,,0.00,Wunderground v.1.15,2013-02-12 19:42:00,
2013-02-12 14:44:00,49.4,30.0,30.13,SW,219,2.0,3.0,47,0.00,,,0.00,Wunderground v.1.15,2013-02-12 19:44:00,
2013-02-12 14:47:00,49.4,29.5,30.13,South,189,2.0,5.0,46,0.00,,,0.00,Wunderground v.1.15,2013-02-12 19:47:00,
2013-02-12 14:48:00,49.3,29.4,30.13,SW,236,2.0,2.0,46,0.00,,,0.00,Wunderground v.1.15,2013-02-12 19:48:00,
2013-02-12 14:49:00,49.4,30.0,30.13,SSW,205,2.0,2.0,47,0.00,,,0.00,Wunderground v.1.15,2013-02-12 19:49:00,
2013-02-12 14:52:00,49.6,30.2,30.13,West,275,2.0,5.0,47,0.00,,,0.00,Wunderground v.1.15,2013-02-12 19:52:00,
2013-02-12 14:55:00,49.5,29.6,30.13,WSW,254,3.0,5.0,46,0.00,,,0.00,Wunderground v.1.15,2013-02-12 19:55:00,
2013-02-12 14:58:00,49.5,29.0,30.13,SSW,194,2.0,2.0,45,0.00,,,0.00,Wunderground v.1.15,2013-02-12 19:58:00,
2013-02-12 15:01:00,49.4,29.5,30.13,SW,223,2.0,4.0,46,0.00,,,0.00,Wunderground v.1.15,2013-02-12 20:01:00,
2013-02-12 15:05:00,49.3,29.4,30.13,WSW,250,2.0,4.0,46,0.00,,,0.00,Wunderground v.1.15,2013-02-12 20:05:00,
2013-02-12 15:06:00,49.3,29.4,30.13,SW,232,2.0,6.0,46,0.00,,,0.00,Wunderground v.1.15,2013-02-12 20:06:00,
2013-02-12 15:08:00,49.2,29.3,30.13,SW,226,2.0,3.0,46,0.00,,,0.00,Wunderground v.1.15,2013-02-12 20:08:00,
2013-02-12 15:11:00,49.3,29.4,30.13,WSW,237,3.0,4.0,46,0.00,,,0.00,Wunderground v.1.15,2013-02-12 20:11:00,
2013-02-12 15:13:00,49.3,28.8,30.12,SW,217,3.0,4.0,45,0.00,,,0.00,Wunderground v.1.15,2013-02-12 20:13:00,
2013-02-12 15:14:00,49.3,29.4,30.12,SSW,192,3.0,4.0,46,0.00,,,0.00,Wunderground v.1.15,2013-02-12 20:14:00,
2013-02-12 15:17:00,49.5,29.6,30.12,SW,219,3.0,6.0,46,0.00,,,0.00,Wunderground v.1.15,2013-02-12 20:17:00,
2013-02-12 15:19:00,49.5,29.0,30.11,WSW,240,3.0,5.0,45,0.00,,,0.00,Wunderground v.1.15,2013-02-12 20:19:00,
2013-02-12 15:21:00,49.5,29.6,30.11,West,275,3.0,5.0,46,0.00,,,0.00,Wunderground v.1.15,2013-02-12 20:21:00,
2013-02-12 15:24:00,49.3,28.8,30.11,West,270,2.0,5.0,45,0.00,,,0.00,Wunderground v.1.15,2013-02-12 20:24:00,
2013-02-12 15:25:00,49.2,28.7,30.11,West,270,2.0,5.0,45,0.00,,,0.00,Wunderground v.1.15,2013-02-12 20:25:00,
2013-02-12 15:26:00,49.2,29.3,30.11,SSW,213,2.0,5.0,46,0.00,,,0.00,Wunderground v.1.15,2013-02-12 20:26:00,
2013-02-12 15:27:00,49.2,28.7,30.11,SSW,202,2.0,2.0,45,0.00,,,0.00,Wunderground v.1.15,2013-02-12 20:27:00,
2013-02-12 15:31:00,49.2,29.3,30.11,WSW,251,1.0,6.0,46,0.00,,,0.00,Wunderground v.1.15,2013-02-12 20:31:00,
2013-02-12 15:34:00,49.2,27.6,30.11,SSW,213,2.0,6.0,43,0.00,,,0.00,Wunderground v.1.15,2013-02-12 20:34:00,
2013-02-12 15:38:00,49.2,28.2,30.11,WSW,250,2.0,4.0,44,0.00,,,0.00,Wunderground v.1.15,2013-02-12 20:38:00,
2013-02-12 15:41:00,49.0,28.0,30.10,WSW,258,2.0,4.0,44,0.00,,,0.00,Wunderground v.1.15,2013-02-12 20:41:00,
2013-02-12 15:45:00,48.9,28.5,30.10,SSW,207,2.0,5.0,45,0.00,,,0.00,Wunderground v.1.15,2013-02-12 20:45:00,
2013-02-12 15:46:00,48.8,27.8,30.10,SSW,205,2.0,5.0,44,0.00,,,0.00,Wunderground v.1.15,2013-02-12 20:46:00,
2013-02-12 15:48:00,48.8,28.9,30.10,SSW,205,2.0,2.0,46,0.00,,,0.00,Wunderground v.1.15,2013-02-12 20:48:00,
2013-02-12 15:50:00,48.8,28.9,30.10,SSW,205,2.0,2.0,46,0.00,,,0.00,Wunderground v.1.15,2013-02-12 20:50:00,
2013-02-12 15:51:00,48.9,29.0,30.10,SSW,205,2.0,2.0,46,0.00,,,0.00,Wunderground v.1.15,2013-02-12 20:51:00,
2013-02-12 15:55:00,48.9,29.0,30.09,SSW,205,1.0,2.0,46,0.00,,,0.00,Wunderground v.1.15,2013-02-12 20:55:00,
2013-02-12 15:58:00,48.8,28.9,30.10,SW,217,0.0,0.0,46,0.00,,,0.00,Wunderground v.1.15,2013-02-12 20:58:00,
2013-02-12 16:01:00,48.8,28.9,30.09,SW,217,0.0,0.0,46,0.00,,,0.00,Wunderground v.1.15,2013-02-12 21:01:00,
2013-02-12 16:04:00,48.7,28.8,30.09,SW,217,0.0,2.0,46,0.00,,,0.00,Wunderground v.1.15,2013-02-12 21:04:00,
2013-02-12 16:05:00,48.7,28.8,30.09,SW,223,1.0,2.0,46,0.00,,,0.00,Wunderground v.1.15,2013-02-12 21:05:00,
2013-02-12 16:06:00,48.6,28.2,30.08,SW,223,1.0,2.0,45,0.00,,,0.00,Wunderground v.1.15,2013-02-12 21:06:00,
2013-02-12 16:10:00,48.6,29.3,30.08,SW,223,0.0,1.0,47,0.00,,,0.00,Wunderground v.1.15,2013-02-12 21:10:00,
2013-02-12 16:11:00,48.6,28.7,30.08,SW,223,1.0,1.0,46,0.00,,,0.00,Wunderground v.1.15,2013-02-12 21:11:00,
2013-02-12 16:14:00,48.7,28.3,30.08,SW,223,1.0,1.0,45,0.00,,,0.00,Wunderground v.1.15,2013-02-12 21:14:00,
2013-02-12 16:15:00,48.7,28.3,30.08,SW,223,0.0,1.0,45,0.00,,,0.00,Wunderground v.1.15,2013-02-12 21:15:00,
2013-02-12 16:17:00,48.7,28.8,30.08,SW,223,0.0,1.0,46,0.00,,,0.00,Wunderground v.1.15,2013-02-12 21:17:00,
2013-02-12 16:20:00,48.6,28.7,30.08,WSW,241,0.0,4.0,46,0.00,,,0.00,Wunderground v.1.15,2013-02-12 21:20:00,
2013-02-12 16:22:00,48.6,28.7,30.08,WSW,241,0.0,4.0,46,0.00,,,0.00,Wunderground v.1.15,2013-02-12 21:22:00,
2013-02-12 16:27:00,48.5,28.6,30.07,WSW,241,1.0,1.0,46,0.00,,,0.00,Wunderground v.1.15,2013-02-12 21:27:00,
2013-02-12 16:28:00,48.5,29.2,30.07,WSW,241,1.0,1.0,47,0.00,,,0.00,Wunderground v.1.15,2013-02-12 21:28:00,
2013-02-12 16:30:00,48.4,28.5,30.07,WSW,241,0.0,2.0,46,0.00,,,0.00,Wunderground v.1.15,2013-02-12 21:30:00,
2013-02-12 16:34:00,48.5,29.2,30.06,WSW,241,0.0,2.0,47,0.00,,,0.00,Wunderground v.1.15,2013-02-12 21:34:00,
2013-02-12 16:35:00,48.5,29.2,30.06,WSW,241,0.0,2.0,47,0.00,,,0.00,Wunderground v.1.15,2013-02-12 21:35:00,
2013-02-12 16:39:00,48.5,29.2,30.06,WSW,241,0.0,0.0,47,0.00,,,0.00,Wunderground v.1.15,2013-02-12 21:39:00,
2013-02-12 16:40:00,48.5,28.6,30.06,WSW,241,0.0,1.0,46,0.00,,,0.00,Wunderground v.1.15,2013-02-12 21:40:00,
2013-02-12 16:42:00,48.5,28.6,30.06,WSW,241,0.0,1.0,46,0.00,,,0.00,Wunderground v.1.15,2013-02-12 21:42:00,
2013-02-12 16:45:00,48.6,29.3,30.06,WSW,241,0.0,1.0,47,0.00,,,0.00,Wunderground v.1.15,2013-02-12 21:45:00,
2013-02-12 16:47:00,48.6,29.3,30.06,WSW,241,0.0,1.0,47,0.00,,,0.00,Wunderground v.1.15,2013-02-12 21:47:00,
2013-02-12 16:48:00,48.6,28.7,30.05,WSW,241,0.0,0.0,46,0.00,,,0.00,Wunderground v.1.15,2013-02-12 21:48:00,
2013-02-12 16:51:00,48.5,28.6,30.05,WSW,241,0.0,0.0,46,0.00,,,0.00,Wunderground v.1.15,2013-02-12 21:51:00,
2013-02-12 16:53:00,48.6,29.3,30.05,WSW,241,0.0,1.0,47,0.00,,,0.00,Wunderground v.1.15,2013-02-12 21:53:00,
2013-02-12 16:54:00,48.6,29.3,30.05,WSW,241,0.0,1.0,47,0.00,,,0.00,Wunderground v.1.15,2013-02-12 21:54:00,
2013-02-12 16:57:00,48.6,28.7,30.05,WSW,241,0.0,1.0,46,0.00,,,0.00,Wunderground v.1.15,2013-02-12 21:57:00,
2013-02-12 16:58:00,48.7,28.8,30.05,WSW,241,0.0,0.0,46,0.00,,,0.00,Wunderground v.1.15,2013-02-12 21:58:00,
2013-02-12 17:02:00,48.7,28.3,30.05,WSW,241,0.0,0.0,45,0.00,,,0.00,Wunderground v.1.15,2013-02-12 22:02:00,
2013-02-12 17:04:00,48.7,28.3,30.05,WSW,241,0.0,0.0,45,0.00,,,0.00,Wunderground v.1.15,2013-02-12 22:04:00,
2013-02-12 17:05:00,48.7,28.8,30.05,WSW,241,0.0,0.0,46,0.00,,,0.00,Wunderground v.1.15,2013-02-12 22:05:00,
2013-02-12 17:10:00,48.6,29.3,30.05,WSW,241,0.0,0.0,47,0.00,,,0.00,Wunderground v.1.15,2013-02-12 22:10:00,
2013-02-12 17:11:00,48.7,29.4,30.05,WSW,241,0.0,0.0,47,0.00,,,0.00,Wunderground v.1.15,2013-02-12 22:11:00,
2013-02-12 17:12:00,48.6,28.7,30.05,WSW,241,0.0,1.0,46,0.00,,,0.00,Wunderground v.1.15,2013-02-12 22:12:00,
2013-02-12 17:17:00,48.5,28.6,30.05,WSW,241,0.0,0.0,46,0.00,,,0.00,Wunderground v.1.15,2013-02-12 22:17:00,
2013-02-12 17:19:00,48.5,28.6,30.05,WSW,241,0.0,1.0,46,0.00,,,0.00,Wunderground v.1.15,2013-02-12 22:19:00,
2013-02-12 17:24:00,48.4,29.1,30.05,WSW,241,0.0,1.0,47,0.00,,,0.00,Wunderground v.1.15,2013-02-12 22:24:00,
2013-02-12 17:27:00,48.3,30.0,30.05,WSW,241,0.0,1.0,49,0.00,,,0.00,Wunderground v.1.15,2013-02-12 22:27:00,
2013-02-12 17:29:00,48.3,29.0,30.05,WSW,241,0.0,0.0,47,0.00,,,0.00,Wunderground v.1.15,2013-02-12 22:29:00,
2013-02-12 17:31:00,48.2,28.9,30.05,WSW,241,0.0,0.0,47,0.00,,,0.00,Wunderground v.1.15,2013-02-12 22:31:00,
2013-02-12 17:33:00,48.2,28.9,30.05,WSW,241,0.0,0.0,47,0.00,,,0.00,Wunderground v.1.15,2013-02-12 22:33:00,
2013-02-12 17:34:00,48.1,28.3,30.04,WSW,241,0.0,0.0,46,0.00,,,0.00,Wunderground v.1.15,2013-02-12 22:34:00,
2013-02-12 17:39:00,47.9,28.6,30.05,WSW,241,0.0,0.0,47,0.00,,,0.00,Wunderground v.1.15,2013-02-12 22:39:00,
2013-02-12 17:40:00,47.9,28.6,30.05,WSW,241,0.0,0.0,47,0.00,,,0.00,Wunderground v.1.15,2013-02-12 22:40:00,
2013-02-12 17:41:00,47.9,29.1,30.04,WSW,241,0.0,0.0,48,0.00,,,0.00,Wunderground v.1.15,2013-02-12 22:41:00,
2013-02-12 17:42:00,47.8,29.0,30.04,WSW,241,0.0,0.0,48,0.00,,,0.00,Wunderground v.1.15,2013-02-12 22:42:00,
2013-02-12 17:46:00,47.7,28.9,30.04,WSW,241,0.0,0.0,48,0.00,,,0.00,Wunderground v.1.15,2013-02-12 22:46:00,
2013-02-12 17:48:00,47.6,28.9,30.05,WSW,241,0.0,0.0,48,0.00,,,0.00,Wunderground v.1.15,2013-02-12 22:48:00,
2013-02-12 17:53:00,47.4,28.7,30.04,WSW,241,0.0,0.0,48,0.00,,,0.00,Wunderground v.1.15,2013-02-12 22:53:00,
2013-02-12 17:56:00,47.2,28.5,30.05,WSW,241,0.0,0.0,48,0.00,,,0.00,Wunderground v.1.15,2013-02-12 22:56:00,
2013-02-12 17:59:00,47.0,28.3,30.05,WSW,241,0.0,0.0,48,0.00,,,0.00,Wunderground v.1.15,2013-02-12 22:59:00,
2013-02-12 18:02:00,46.9,27.7,30.05,WSW,241,0.0,0.0,47,0.00,,,0.00,Wunderground v.1.15,2013-02-12 23:02:00,
2013-02-12 18:03:00,46.8,27.6,30.05,WSW,241,0.0,0.0,47,0.00,,,0.00,Wunderground v.1.15,2013-02-12 23:03:00,
2013-02-12 18:07:00,46.7,28.0,30.05,WSW,241,0.0,0.0,48,0.00,,,0.00,Wunderground v.1.15,2013-02-12 23:07:00,
2013-02-12 18:10:00,46.6,27.9,30.05,WSW,241,0.0,0.0,48,0.00,,,0.00,Wunderground v.1.15,2013-02-12 23:10:00,
2013-02-12 18:15:00,46.4,28.3,30.04,WSW,241,0.0,0.0,49,0.00,,,0.00,Wunderground v.1.15,2013-02-12 23:15:00,
2013-02-12 18:20:00,46.2,28.1,30.05,WSW,241,0.0,0.0,49,0.00,,,0.00,Wunderground v.1.15,2013-02-12 23:20:00,
2013-02-12 18:28:00,45.9,27.8,30.05,WSW,241,0.0,0.0,49,0.00,,,0.00,Wunderground v.1.15,2013-02-12 23:28:00,
2013-02-12 18:29:00,45.8,28.2,30.05,WSW,241,0.0,0.0,50,0.00,,,0.00,Wunderground v.1.15,2013-02-12 23:29:00,
2013-02-12 18:30:00,45.8,27.7,30.05,WSW,241,0.0,0.0,49,0.00,,,0.00,Wunderground v.1.15,2013-02-12 23:30:00,
2013-02-12 18:34:00,45.7,27.6,30.05,WSW,241,0.0,0.0,49,0.00,,,0.00,Wunderground v.1.15,2013-02-12 23:34:00,
2013-02-12 18:35:00,45.6,27.5,30.05,WSW,241,0.0,0.0,49,0.00,,,0.00,Wunderground v.1.15,2013-02-12 23:35:00,
2013-02-12 18:40:00,45.5,27.9,30.05,WSW,241,0.0,0.0,50,0.00,,,0.00,Wunderground v.1.15,2013-02-12 23:40:00,
2013-02-12 18:41:00,45.5,27.9,30.05,WSW,241,0.0,0.0,50,0.00,,,0.00,Wunderground v.1.15,2013-02-12 23:41:00,
2013-02-12 18:45:00,45.5,27.9,30.05,WSW,241,0.0,0.0,50,0.00,,,0.00,Wunderground v.1.15,2013-02-12 23:45:00,
2013-02-12 18:46:00,45.4,27.8,30.05,WSW,241,0.0,0.0,50,0.00,,,0.00,Wunderground v.1.15,2013-02-12 23:46:00,
2013-02-12 18:49:00,45.4,27.8,30.04,WSW,241,0.0,0.0,50,0.00,,,0.00,Wunderground v.1.15,2013-02-12 23:49:00,
2013-02-12 18:51:00,45.3,28.2,30.03,WSW,241,0.0,0.0,51,0.00,,,0.00,Wunderground v.1.15,2013-02-12 23:51:00,
2013-02-12 18:58:00,45.1,28.0,30.04,WSW,241,0.0,0.0,51,0.00,,,0.00,Wunderground v.1.15,2013-02-12 23:58:00,
2013-02-12 18:59:00,45.1,28.0,30.04,WSW,241,0.0,0.0,51,0.00,,,0.00,Wunderground v.1.15,2013-02-12 23:59:00,
2013-02-12 19:01:00,45.1,28.0,30.04,WSW,241,0.0,0.0,51,0.00,,,0.00,Wunderground v.1.15,2013-02-13 00:01:00,
2013-02-12 19:06:00,45.0,27.9,30.03,WSW,242,0.0,0.0,51,0.00,,,0.00,Wunderground v.1.15,2013-02-13 00:06:00,
2013-02-12 19:09:00,45.1,28.0,30.03,WSW,242,0.0,0.0,51,0.00,,,0.00,Wunderground v.1.15,2013-02-13 00:09:00,
2013-02-12 19:12:00,45.0,27.9,30.03,WSW,242,0.0,0.0,51,0.00,,,0.00,Wunderground v.1.15,2013-02-13 00:12:00,
2013-02-12 19:16:00,44.9,27.8,30.03,WSW,242,0.0,0.0,51,0.00,,,0.00,Wunderground v.1.15,2013-02-13 00:16:00,
2013-02-12 19:18:00,44.9,27.8,30.03,WSW,242,0.0,0.0,51,0.00,,,0.00,Wunderground v.1.15,2013-02-13 00:18:00,
2013-02-12 19:19:00,44.8,27.8,30.03,WSW,242,0.0,0.0,51,0.00,,,0.00,Wunderground v.1.15,2013-02-13 00:19:00,
2013-02-12 19:24:00,44.6,28.0,30.03,WSW,242,0.0,0.0,52,0.00,,,0.00,Wunderground v.1.15,2013-02-13 00:24:00,
2013-02-12 19:25:00,44.6,28.0,30.03,WSW,242,0.0,0.0,52,0.00,,,0.00,Wunderground v.1.15,2013-02-13 00:25:00,
2013-02-12 19:27:00,44.5,28.0,30.03,WSW,242,0.0,0.0,52,0.00,,,0.00,Wunderground v.1.15,2013-02-13 00:27:00,
2013-02-12 19:32:00,44.1,28.0,30.03,WSW,242,0.0,0.0,53,0.00,,,0.00,Wunderground v.1.15,2013-02-13 00:32:00,
2013-02-12 19:35:00,43.9,27.9,30.03,WSW,242,0.0,0.0,53,0.00,,,0.00,Wunderground v.1.15,2013-02-13 00:35:00,
2013-02-12 19:38:00,43.8,27.8,30.03,WSW,242,0.0,0.0,53,0.00,,,0.00,Wunderground v.1.15,2013-02-13 00:38:00,
2013-02-12 19:40:00,43.8,27.8,30.03,WSW,242,0.0,0.0,53,0.00,,,0.00,Wunderground v.1.15,2013-02-13 00:40:00,
2013-02-12 19:41:00,43.8,27.8,30.03,WSW,242,0.0,0.0,53,0.00,,,0.00,Wunderground v.1.15,2013-02-13 00:41:00,
2013-02-12 19:45:00,44.0,28.0,30.03,WSW,242,0.0,0.0,53,0.00,,,0.00,Wunderground v.1.15,2013-02-13 00:45:00,
2013-02-12 19:47:00,43.9,27.9,30.03,WSW,242,0.0,0.0,53,0.00,,,0.00,Wunderground v.1.15,2013-02-13 00:47:00,
2013-02-12 19:52:00,43.8,27.8,30.03,WSW,242,0.0,0.0,53,0.00,,,0.00,Wunderground v.1.15,2013-02-13 00:52:00,
2013-02-12 19:53:00,43.7,27.7,30.03,WSW,242,0.0,0.0,53,0.00,,,0.00,Wunderground v.1.15,2013-02-13 00:53:00,
2013-02-12 19:57:00,43.7,28.1,30.02,WSW,242,0.0,0.0,54,0.00,,,0.00,Wunderground v.1.15,2013-02-13 00:57:00,
2013-02-12 19:59:00,43.9,28.3,30.03,WSW,242,0.0,0.0,54,0.00,,,0.00,Wunderground v.1.15,2013-02-13 00:59:00,
2013-02-12 20:00:00,43.9,27.9,30.03,WSW,242,0.0,0.0,53,0.00,,,0.00,Wunderground v.1.15,2013-02-13 01:00:00,
2013-02-12 20:03:00,44.0,28.0,30.03,WSW,242,0.0,0.0,53,0.00,,,0.00,Wunderground v.1.15,2013-02-13 01:03:00,
2013-02-12 20:04:00,44.0,28.0,30.03,WSW,242,0.0,0.0,53,0.00,,,0.00,Wunderground v.1.15,2013-02-13 01:04:00,
2013-02-12 20:06:00,44.0,28.0,30.03,WSW,242,0.0,0.0,53,0.00,,,0.00,Wunderground v.1.15,2013-02-13 01:06:00,
2013-02-12 20:07:00,44.0,28.4,30.03,WSW,242,0.0,0.0,54,0.00,,,0.00,Wunderground v.1.15,2013-02-13 01:07:00,
2013-02-12 20:08:00,44.0,28.4,30.03,WSW,242,0.0,0.0,54,0.00,,,0.00,Wunderground v.1.15,2013-02-13 01:08:00,
2013-02-12 20:12:00,44.0,28.4,30.02,WSW,242,0.0,0.0,54,0.00,,,0.00,Wunderground v.1.15,2013-02-13 01:12:00,
2013-02-12 20:15:00,44.0,28.9,30.02,WSW,242,0.0,0.0,55,0.00,,,0.00,Wunderground v.1.15,2013-02-13 01:15:00,
2013-02-12 20:17:00,44.0,28.9,30.02,WSW,242,0.0,0.0,55,0.00,,,0.00,Wunderground v.1.15,2013-02-13 01:17:00,
2013-02-12 20:19:00,43.9,29.2,30.02,WSW,242,0.0,0.0,56,0.00,,,0.00,Wunderground v.1.15,2013-02-13 01:19:00,
2013-02-12 20:22:00,43.7,29.0,30.02,WSW,242,0.0,0.0,56,0.00,,,0.00,Wunderground v.1.15,2013-02-13 01:22:00,
2013-02-12 20:26:00,43.6,28.9,30.02,WSW,242,0.0,1.0,56,0.00,,,0.00,Wunderground v.1.15,2013-02-13 01:26:00,
2013-02-12 20:32:00,43.3,29.1,30.02,WSW,242,0.0,0.0,57,0.00,,,0.00,Wunderground v.1.15,2013-02-13 01:32:00,
2013-02-12 20:34:00,43.2,29.0,30.02,WSW,242,0.0,0.0,57,0.00,,,0.00,Wunderground v.1.15,2013-02-13 01:34:00,
2013-02-12 20:39:00,43.0,29.2,30.02,WSW,242,0.0,0.0,58,0.00,,,0.00,Wunderground v.1.15,2013-02-13 01:39:00,
2013-02-12 20:42:00,42.9,29.5,30.02,WSW,242,0.0,0.0,59,0.00,,,0.00,Wunderground v.1.15,2013-02-13 01:42:00,
2013-02-12 20:45:00,42.9,29.5,30.01,WSW,242,0.0,0.0,59,0.00,,,0.00,Wunderground v.1.15,2013-02-13 01:45:00,
2013-02-12 20:47:00,42.8,29.9,30.01,WSW,242,0.0,1.0,60,0.00,,,0.00,Wunderground v.1.15,2013-02-13 01:47:00,
2013-02-12 20:48:00,42.8,29.9,30.01,WSW,242,0.0,1.0,60,0.00,,,0.00,Wunderground v.1.15,2013-02-13 01:48:00,
2013-02-12 20:53:00,42.6,29.7,30.01,WSW,242,0.0,1.0,60,0.00,,,0.00,Wunderground v.1.15,2013-02-13 01:53:00,
2013-02-12 20:54:00,42.6,29.7,30.01,WSW,242,0.0,1.0,60,0.00,,,0.00,Wunderground v.1.15,2013-02-13 01:54:00,
2013-02-12 20:58:00,42.7,29.8,30.01,WSW,242,0.0,0.0,60,0.00,,,0.00,Wunderground v.1.15,2013-02-13 01:58:00,
2013-02-12 21:01:00,42.7,29.8,30.01,WSW,242,0.0,0.0,60,0.00,,,0.00,Wunderground v.1.15,2013-02-13 02:01:00,
2013-02-12 21:04:00,42.7,29.8,30.01,WSW,242,0.0,0.0,60,0.00,,,0.00,Wunderground v.1.15,2013-02-13 02:04:00,
2013-02-12 21:05:00,42.7,29.8,30.01,WSW,242,0.0,0.0,60,0.00,,,0.00,Wunderground v.1.15,2013-02-13 02:05:00,
2013-02-12 21:06:00,42.6,29.7,30.01,WSW,242,0.0,0.0,60,0.00,,,0.00,Wunderground v.1.15,2013-02-13 02:06:00,
2013-02-12 21:07:00,42.6,29.7,30.01,WSW,242,0.0,0.0,60,0.00,,,0.00,Wunderground v.1.15,2013-02-13 02:07:00,
2013-02-12 21:12:00,42.5,29.2,30.00,WSW,242,0.0,0.0,59,0.00,,,0.00,Wunderground v.1.15,2013-02-13 02:12:00,
2013-02-12 21:14:00,42.4,29.5,30.01,WSW,242,0.0,0.0,60,0.00,,,0.00,Wunderground v.1.15,2013-02-13 02:14:00,
2013-02-12 21:16:00,42.4,29.5,30.01,WSW,242,0.0,0.0,60,0.00,,,0.00,Wunderground v.1.15,2013-02-13 02:16:00,
2013-02-12 21:17:00,42.3,30.2,30.00,WSW,242,0.0,0.0,62,0.00,,,0.00,Wunderground v.1.15,2013-02-13 02:17:00,
2013-02-12 21:20:00,42.0,30.7,30.01,WSW,242,0.0,0.0,64,0.00,,,0.00,Wunderground v.1.15,2013-02-13 02:20:00,
2013-02-12 21:24:00,41.5,29.4,30.01,WSW,242,0.0,0.0,62,0.00,,,0.00,Wunderground v.1.15,2013-02-13 02:24:00,
2013-02-12 21:25:00,41.3,29.3,30.01,WSW,242,0.0,0.0,62,0.00,,,0.00,Wunderground v.1.15,2013-02-13 02:25:00,
2013-02-12 21:26:00,41.2,29.2,30.01,WSW,242,0.0,0.0,62,0.00,,,0.00,Wunderground v.1.15,2013-02-13 02:26:00,
2013-02-12 21:31:00,40.8,28.8,30.00,WSW,242,0.0,0.0,62,0.00,,,0.00,Wunderground v.1.15,2013-02-13 02:31:00,
2013-02-12 21:33:00,40.7,28.7,30.00,WSW,242,0.0,0.0,62,0.00,,,0.00,Wunderground v.1.15,2013-02-13 02:33:00,
2013-02-12 21:38:00,40.5,28.9,30.00,WSW,242,0.0,0.0,63,0.00,,,0.00,Wunderground v.1.15,2013-02-13 02:38:00,
2013-02-12 21:40:00,40.4,28.8,30.00,WSW,242,0.0,0.0,63,0.00,,,0.00,Wunderground v.1.15,2013-02-13 02:40:00,
2013-02-12 21:45:00,40.2,29.0,30.00,WSW,242,0.0,0.0,64,0.00,,,0.00,Wunderground v.1.15,2013-02-13 02:45:00,
2013-02-12 21:48:00,40.2,29.4,30.00,WSW,242,0.0,0.0,65,0.00,,,0.00,Wunderground v.1.15,2013-02-13 02:48:00,
2013-02-12 21:49:00,40.1,29.3,30.00,WSW,242,0.0,0.0,65,0.00,,,0.00,Wunderground v.1.15,2013-02-13 02:49:00,
2013-02-12 21:53:00,40.0,29.6,30.00,WSW,242,0.0,0.0,66,0.00,,,0.00,Wunderground v.1.15,2013-02-13 02:53:00,
2013-02-12 21:55:00,40.0,29.6,30.00,WSW,242,0.0,0.0,66,0.00,,,0.00,Wunderground v.1.15,2013-02-13 02:55:00,
2013-02-12 21:59:00,40.1,30.0,30.00,WSW,242,0.0,0.0,67,0.00,,,0.00,Wunderground v.1.15,2013-02-13 02:59:00,
2013-02-12 22:01:00,40.1,30.0,30.00,WSW,242,0.0,0.0,67,0.00,,,0.00,Wunderground v.1.15,2013-02-13 03:01:00,
2013-02-12 22:02:00,40.1,30.0,30.00,WSW,242,0.0,0.0,67,0.00,,,0.00,Wunderground v.1.15,2013-02-13 03:02:00,
2013-02-12 22:06:00,40.1,30.0,30.00,WSW,242,0.0,1.0,67,0.00,,,0.00,Wunderground v.1.15,2013-02-13 03:06:00,
2013-02-12 22:07:00,40.1,30.0,29.99,WSW,242,0.0,0.0,67,0.00,,,0.00,Wunderground v.1.15,2013-02-13 03:07:00,
2013-02-12 22:10:00,40.0,29.9,29.99,WSW,242,0.0,0.0,67,0.00,,,0.00,Wunderground v.1.15,2013-02-13 03:10:00,
2013-02-12 22:11:00,40.0,29.9,30.00,WSW,242,0.0,0.0,67,0.00,,,0.00,Wunderground v.1.15,2013-02-13 03:11:00,
2013-02-12 22:16:00,39.9,29.8,29.99,WSW,242,0.0,0.0,67,0.00,,,0.00,Wunderground v.1.15,2013-02-13 03:16:00,
2013-02-12 22:18:00,39.8,29.7,29.99,WSW,242,0.0,0.0,67,0.00,,,0.00,Wunderground v.1.15,2013-02-13 03:18:00,
2013-02-12 22:21:00,39.8,30.1,29.99,WSW,242,0.0,0.0,68,0.00,,,0.00,Wunderground v.1.15,2013-02-13 03:21:00,
2013-02-12 22:24:00,39.7,30.0,29.99,WSW,242,0.0,0.0,68,0.00,,,0.00,Wunderground v.1.15,2013-02-13 03:24:00,
2013-02-12 22:25:00,39.7,30.0,29.99,WSW,242,0.0,0.0,68,0.00,,,0.00,Wunderground v.1.15,2013-02-13 03:25:00,
2013-02-12 22:26:00,39.7,30.0,29.99,WSW,242,0.0,0.0,68,0.00,,,0.00,Wunderground v.1.15,2013-02-13 03:26:00,
2013-02-12 22:29:00,39.7,30.0,29.99,WSW,242,0.0,0.0,68,0.00,,,0.00,Wunderground v.1.15,2013-02-13 03:29:00,
2013-02-12 22:34:00,39.6,29.9,29.99,WSW,242,0.0,0.0,68,0.00,,,0.00,Wunderground v.1.15,2013-02-13 03:34:00,
2013-02-12 22:36:00,39.5,29.8,29.99,WSW,242,0.0,0.0,68,0.00,,,0.00,Wunderground v.1.15,2013-02-13 03:36:00,
2013-02-12 22:38:00,39.5,29.8,29.99,WSW,242,0.0,0.0,68,0.00,,,0.00,Wunderground v.1.15,2013-02-13 03:38:00,
2013-02-12 22:43:00,39.7,29.3,29.98,WSW,242,0.0,0.0,66,0.00,,,0.00,Wunderground v.1.15,2013-02-13 03:43:00,
2013-02-12 22:46:00,39.7,29.3,29.98,WSW,242,0.0,0.0,66,0.00,,,0.00,Wunderground v.1.15,2013-02-13 03:46:00,
2013-02-12 22:51:00,39.7,28.9,29.98,WSW,242,0.0,0.0,65,0.00,,,0.00,Wunderground v.1.15,2013-02-13 03:51:00,
2013-02-12 22:52:00,39.7,28.9,29.98,WSW,242,0.0,0.0,65,0.00,,,0.00,Wunderground v.1.15,2013-02-13 03:52:00,
2013-02-12 22:53:00,39.7,28.9,29.98,WSW,242,0.0,0.0,65,0.00,,,0.00,Wunderground v.1.15,2013-02-13 03:53:00,
2013-02-12 22:59:00,39.6,28.8,29.97,WSW,242,0.0,0.0,65,0.00,,,0.00,Wunderground v.1.15,2013-02-13 03:59:00,
2013-02-12 23:04:00,39.9,29.1,29.97,WSW,242,0.0,0.0,65,0.00,,,0.00,Wunderground v.1.15,2013-02-13 04:04:00,
2013-02-12 23:06:00,39.9,29.1,29.97,WSW,242,0.0,0.0,65,0.00,,,0.00,Wunderground v.1.15,2013-02-13 04:06:00,
2013-02-12 23:08:00,39.8,29.4,29.97,WSW,242,0.0,0.0,66,0.00,,,0.00,Wunderground v.1.15,2013-02-13 04:08:00,
2013-02-12 23:11:00,39.5,29.4,29.97,WSW,242,0.0,0.0,67,0.00,,,0.00,Wunderground v.1.15,2013-02-13 04:11:00,
2013-02-12 23:13:00,39.3,28.9,29.97,WSW,242,0.0,0.0,66,0.00,,,0.00,Wunderground v.1.15,2013-02-13 04:13:00,
2013-02-12 23:16:00,39.2,29.2,29.97,WSW,242,0.0,0.0,67,0.00,,,0.00,Wunderground v.1.15,2013-02-13 04:16:00,
2013-02-12 23:17:00,39.1,29.4,29.97,WSW,242,0.0,0.0,68,0.00,,,0.00,Wunderground v.1.15,2013-02-13 04:17:00,
2013-02-12 23:21:00,39.1,29.4,29.97,WSW,242,0.0,0.0,68,0.00,,,0.00,Wunderground v.1.15,2013-02-13 04:21:00,
2013-02-12 23:22:00,39.1,29.4,29.97,WSW,242,0.0,0.0,68,0.00,,,0.00,Wunderground v.1.15,2013-02-13 04:22:00,
2013-02-12 23:23:00,39.1,29.4,29.97,WSW,242,0.0,0.0,68,0.00,,,0.00,Wunderground v.1.15,2013-02-13 04:23:00,
2013-02-12 23:24:00,39.1,29.4,29.97,WSW,242,0.0,0.0,68,0.00,,,0.00,Wunderground v.1.15,2013-02-13 04:24:00,
2013-02-12 23:28:00,39.0,29.7,29.97,WSW,242,0.0,0.0,69,0.00,,,0.00,Wunderground v.1.15,2013-02-13 04:28:00,
2013-02-12 23:30:00,39.0,29.7,29.97,WSW,242,0.0,0.0,69,0.00,,,0.00,Wunderground v.1.15,2013-02-13 04:30:00,
2013-02-12 23:31:00,39.0,30.0,29.96,WSW,242,0.0,0.0,70,0.00,,,0.00,Wunderground v.1.15,2013-02-13 04:31:00,
2013-02-12 23:32:00,38.9,30.3,29.96,WSW,242,0.0,0.0,71,0.00,,,0.00,Wunderground v.1.15,2013-02-13 04:32:00,
2013-02-12 23:34:00,38.9,30.3,29.96,WSW,242,0.0,0.0,71,0.00,,,0.00,Wunderground v.1.15,2013-02-13 04:34:00,
2013-02-12 23:35:00,38.9,30.3,29.96,WSW,242,0.0,0.0,71,0.00,,,0.00,Wunderground v.1.15,2013-02-13 04:35:00,
2013-02-12 23:37:00,38.9,30.3,29.96,WSW,242,0.0,0.0,71,0.00,,,0.00,Wunderground v.1.15,2013-02-13 04:37:00,
2013-02-12 23:39:00,38.8,30.2,29.96,WSW,242,0.0,0.0,71,0.00,,,0.00,Wunderground v.1.15,2013-02-13 04:39:00,
2013-02-12 23:42:00,38.8,30.5,29.96,WSW,242,0.0,0.0,72,0.00,,,0.00,Wunderground v.1.15,2013-02-13 04:42:00,
2013-02-12 23:45:00,38.8,31.2,29.95,WSW,242,0.0,0.0,74,0.00,,,0.00,Wunderground v.1.15,2013-02-13 04:45:00,
2013-02-12 23:48:00,38.8,31.6,29.95,WSW,242,0.0,0.0,75,0.00,,,0.00,Wunderground v.1.15,2013-02-13 04:48:00,
2013-02-12 23:51:00,38.9,31.6,29.95,WSW,242,0.0,0.0,75,0.00,,,0.00,Wunderground v.1.15,2013-02-13 04:51:00,
2013-02-12 23:53:00,38.9,32.0,29.95,WSW,242,0.0,1.0,76,0.00,,,0.00,Wunderground v.1.15,2013-02-13 04:53:00,
2013-02-12 23:55:00,38.9,32.0,29.95,WSW,242,0.0,1.0,76,0.00,,,0.00,Wunderground v.1.15,2013-02-13 04:55:00,
2013-02-12 23:58:00,38.9,31.6,29.95,North,5,1.0,2.0,75,0.00,,,0.00,Wunderground v.1.15,2013-02-13 04:58:00,
2013-02-12 23:59:00,38.8,31.6,29.95,North,355,1.0,2.0,75,0.00,,,0.00,Wunderground v.1.15,2013-02-13 04:59:00,